Observation data for Rotan on 02/14/2020      Previous  Date  Next       Current Mesonet Observations  Soil Data  Daily Summary Page  Observations in Plain Language
KRO1 140600Z 08007KT M02/M03 A3035 RMK A01 T10171028  RH  092%=      5-min Rain = 0
KRO1 140601Z 08008KT M02/M03 A3035 RMK A01 T10161028  RH  092%=      5-min Rain = 0
KRO1 140602Z 08007KT M02/M03 A3035 RMK A01 T10161029  RH  091%=      5-min Rain = 0
KRO1 140603Z 08007KT M02/M03 A3035 RMK A01 T10161029  RH  091%=      5-min Rain = 0
KRO1 140604Z 08008KT M02/M03 A3035 RMK A01 T10161030  RH  091%=      5-min Rain = 0
KRO1 140605Z 08008KT M02/M03 A3035 RMK A01 T10161030  RH  090%=      5-min Rain = 0
KRO1 140606Z 08008KT M02/M03 A3035 RMK A01 T10161030  RH  090%=      5-min Rain = 0
KRO1 140607Z 08008KT M02/M03 A3035 RMK A01 T10151030  RH  090%=      5-min Rain = 0
KRO1 140608Z 08008KT M02/M03 A3035 RMK A01 T10151031  RH  089%=      5-min Rain = 0
KRO1 140609Z 08008KT M02/M03 A3035 RMK A01 T10151032  RH  089%=      5-min Rain = 0
KRO1 140610Z 08008KT M02/M03 A3035 RMK A01 T10151032  RH  088%=      5-min Rain = 0
KRO1 140611Z 07008KT M02/M03 A3035 RMK A01 T10151031  RH  088%=      5-min Rain = 0
KRO1 140612Z 08009KT M02/M03 A3035 RMK A01 T10151031  RH  088%=      5-min Rain = 0
KRO1 140613Z 08008KT M02/M03 A3035 RMK A01 T10151032  RH  088%=      5-min Rain = 0
KRO1 140614Z 08008KT M02/M03 A3035 RMK A01 T10151033  RH  088%=      5-min Rain = 0
KRO1 140615Z 08008KT M02/M03 A3035 RMK A01 T10151033  RH  087%=      5-min Rain = 0
KRO1 140616Z 08009KT M01/M03 A3035 RMK A01 T10141034  RH  087%=      5-min Rain = 0
KRO1 140617Z 08008KT M02/M04 A3035 RMK A01 T10151035  RH  086%=      5-min Rain = 0
KRO1 140618Z 08008KT M01/M03 A3035 RMK A01 T10141034  RH  086%=      5-min Rain = 0
KRO1 140619Z 08008KT M02/M03 A3035 RMK A01 T10151034  RH  087%=      5-min Rain = 0
KRO1 140620Z 07008KT M02/M03 A3035 RMK A01 T10151034  RH  087%=      5-min Rain = 0
KRO1 140621Z 08009KT M02/M03 A3035 RMK A01 T10151034  RH  087%=      5-min Rain = 0
KRO1 140622Z 08008KT M02/M04 A3035 RMK A01 T10151035  RH  086%=      5-min Rain = 0
KRO1 140623Z 08007KT M02/M04 A3035 RMK A01 T10151035  RH  086%=      5-min Rain = 0
KRO1 140624Z 08007KT M02/M04 A3035 RMK A01 T10151035  RH  086%=      5-min Rain = 0
KRO1 140625Z 08008KT M02/M04 A3035 RMK A01 T10151035  RH  086%=      5-min Rain = 0
KRO1 140626Z 08007KT M02/M04 A3035 RMK A01 T10151035  RH  086%=      5-min Rain = 0
KRO1 140627Z 08007KT M02/M04 A3035 RMK A01 T10151035  RH  087%=      5-min Rain = 0
KRO1 140628Z 07007KT M02/M04 A3035 RMK A01 T10161035  RH  086%=      5-min Rain = 0
KRO1 140629Z 07007KT M02/M04 A3035 RMK A01 T10161035  RH  086%=      5-min Rain = 0
KRO1 140630Z 07007KT M02/M04 A3035 RMK A01 T10161035  RH  086%=      5-min Rain = 0
KRO1 140631Z 07008KT M02/M04 A3035 RMK A01 T10161036  RH  086%=      5-min Rain = 0
KRO1 140632Z 07007KT M02/M04 A3035 RMK A01 T10161036  RH  086%=      5-min Rain = 0
KRO1 140633Z 07008KT M02/M04 A3035 RMK A01 T10161036  RH  086%=      5-min Rain = 0
KRO1 140634Z 07008KT M02/M04 A3035 RMK A01 T10161036  RH  086%=      5-min Rain = 0
KRO1 140635Z 07009KT M02/M04 A3035 RMK A01 T10161036  RH  086%=      5-min Rain = 0
KRO1 140636Z 07009KT M02/M04 A3035 RMK A01 T10161036  RH  086%=      5-min Rain = 0
KRO1 140637Z 08008KT M02/M04 A3035 RMK A01 T10151037  RH  085%=      5-min Rain = 0
KRO1 140638Z 08008KT M02/M04 A3035 RMK A01 T10151037  RH  085%=      5-min Rain = 0
KRO1 140639Z 07008KT M02/M04 A3035 RMK A01 T10151037  RH  085%=      5-min Rain = 0
KRO1 140640Z 08007KT M02/M04 A3035 RMK A01 T10161038  RH  085%=      5-min Rain = 0
KRO1 140641Z 07007KT M02/M04 A3035 RMK A01 T10161038  RH  085%=      5-min Rain = 0
KRO1 140642Z 07008KT M02/M04 A3035 RMK A01 T10161038  RH  085%=      5-min Rain = 0
KRO1 140643Z 07008KT M02/M04 A3035 RMK A01 T10171039  RH  085%=      5-min Rain = 0
KRO1 140644Z 08007KT M02/M04 A3035 RMK A01 T10161039  RH  085%=      5-min Rain = 0
KRO1 140645Z 08007KT M02/M04 A3035 RMK A01 T10161038  RH  085%=      5-min Rain = 0
KRO1 140646Z 08007KT M02/M04 A3035 RMK A01 T10171039  RH  085%=      5-min Rain = 0
KRO1 140647Z 08007KT M02/M04 A3035 RMK A01 T10171039  RH  085%=      5-min Rain = 0
KRO1 140648Z 08007KT M02/M04 A3035 RMK A01 T10181039  RH  085%=      5-min Rain = 0
KRO1 140649Z 08007KT M02/M04 A3035 RMK A01 T10181040  RH  085%=      5-min Rain = 0
KRO1 140650Z 08007KT M02/M04 A3035 RMK A01 T10191040  RH  086%=      5-min Rain = 0
KRO1 140651Z 07007KT M02/M04 A3035 RMK A01 T10191039  RH  086%=      5-min Rain = 0
KRO1 140652Z 07007KT M02/M04 A3035 RMK A01 T10191039  RH  086%=      5-min Rain = 0
KRO1 140653Z 07008KT M02/M04 A3035 RMK A01 T10191039  RH  086%=      5-min Rain = 0
KRO1 140654Z 07007KT M02/M04 A3035 RMK A01 T10191039  RH  086%=      5-min Rain = 0
KRO1 140655Z 07006KT M02/M04 A3035 RMK A01 T10191039  RH  086%=      5-min Rain = 0
KRO1 140656Z 08007KT M02/M04 A3035 RMK A01 T10191039  RH  086%=      5-min Rain = 0
KRO1 140657Z 08006KT M02/M04 A3035 RMK A01 T10191039  RH  086%=      5-min Rain = 0
KRO1 140658Z 08006KT M02/M04 A3035 RMK A01 T10191039  RH  086%=      5-min Rain = 0
KRO1 140659Z 08007KT M02/M04 A3035 RMK A01 T10191039  RH  086%=      5-min Rain = 0
KRO1 140700Z 07007KT M02/M04 A3035 RMK A01 T10191039  RH  086%=      5-min Rain = 0
KRO1 140701Z 07007KT M02/M04 A3035 RMK A01 T10191039  RH  086%=      5-min Rain = 0
KRO1 140702Z 07007KT M02/M04 A3035 RMK A01 T10191040  RH  086%=      5-min Rain = 0
KRO1 140703Z 07007KT M02/M04 A3035 RMK A01 T10191040  RH  086%=      5-min Rain = 0
KRO1 140704Z 07007KT M02/M04 A3035 RMK A01 T10191040  RH  086%=      5-min Rain = 0
KRO1 140705Z 07007KT M02/M04 A3035 RMK A01 T10191040  RH  086%=      5-min Rain = 0
KRO1 140706Z 08007KT M02/M04 A3035 RMK A01 T10191040  RH  086%=      5-min Rain = 0
KRO1 140707Z 08007KT M02/M04 A3035 RMK A01 T10191040  RH  086%=      5-min Rain = 0
KRO1 140708Z 08006KT M02/M04 A3035 RMK A01 T10191040  RH  086%=      5-min Rain = 0
KRO1 140709Z 07006KT M02/M04 A3035 RMK A01 T10191039  RH  086%=      5-min Rain = 0
KRO1 140710Z 07006KT M02/M04 A3035 RMK A01 T10191039  RH  086%=      5-min Rain = 0
KRO1 140711Z 07006KT M02/M04 A3035 RMK A01 T10191039  RH  086%=      5-min Rain = 0
KRO1 140712Z 07007KT M02/M04 A3035 RMK A01 T10191039  RH  086%=      5-min Rain = 0
KRO1 140713Z 07006KT M02/M04 A3035 RMK A01 T10191040  RH  086%=      5-min Rain = 0
KRO1 140714Z 07006KT M02/M04 A3035 RMK A01 T10191040  RH  086%=      5-min Rain = 0
KRO1 140715Z 07006KT M02/M04 A3035 RMK A01 T10191039  RH  086%=      5-min Rain = 0
KRO1 140716Z 07006KT M02/M04 A3035 RMK A01 T10191039  RH  087%=      5-min Rain = 0
KRO1 140717Z 07007KT M02/M04 A3035 RMK A01 T10201039  RH  087%=      5-min Rain = 0
KRO1 140718Z 07007KT M02/M04 A3035 RMK A01 T10201039  RH  087%=      5-min Rain = 0
KRO1 140719Z 07007KT M02/M04 A3035 RMK A01 T10201039  RH  087%=      5-min Rain = 0
KRO1 140720Z 07007KT M02/M04 A3035 RMK A01 T10201039  RH  087%=      5-min Rain = 0
KRO1 140721Z 07007KT M02/M04 A3035 RMK A01 T10201039  RH  087%=      5-min Rain = 0
KRO1 140722Z 07006KT M02/M04 A3035 RMK A01 T10191039  RH  087%=      5-min Rain = 0
KRO1 140723Z 07007KT M02/M04 A3035 RMK A01 T10191038  RH  087%=      5-min Rain = 0
KRO1 140724Z 06007KT M02/M04 A3035 RMK A01 T10191038  RH  087%=      5-min Rain = 0
KRO1 140725Z 06006KT M02/M04 A3035 RMK A01 T10191038  RH  087%=      5-min Rain = 0
KRO1 140726Z 06006KT M02/M04 A3035 RMK A01 T10181037  RH  087%=      5-min Rain = 0
KRO1 140727Z 06007KT M02/M04 A3035 RMK A01 T10181036  RH  088%=      5-min Rain = 0
KRO1 140728Z 07008KT M02/M04 A3035 RMK A01 T10181037  RH  087%=      5-min Rain = 0
KRO1 140729Z 06008KT M02/M04 A3035 RMK A01 T10181040  RH  085%=      5-min Rain = 0
KRO1 140730Z 05007KT M02/M04 A3035 RMK A01 T10181040  RH  085%=      5-min Rain = 0
KRO1 140731Z 05007KT M02/M04 A3035 RMK A01 T10181039  RH  086%=      5-min Rain = 0
KRO1 140732Z 06007KT M02/M04 A3035 RMK A01 T10191039  RH  086%=      5-min Rain = 0
KRO1 140733Z 05007KT M02/M04 A3035 RMK A01 T10191039  RH  087%=      5-min Rain = 0
KRO1 140734Z 05008KT M02/M04 A3035 RMK A01 T10201039  RH  087%=      5-min Rain = 0
KRO1 140735Z 05009KT M02/M04 A3035 RMK A01 T10201039  RH  087%=      5-min Rain = 0
KRO1 140736Z 05009KT M02/M04 A3035 RMK A01 T10201040  RH  086%=      5-min Rain = 0
KRO1 140737Z 05009KT M02/M04 A3035 RMK A01 T10201040  RH  086%=      5-min Rain = 0
KRO1 140738Z 05008KT M02/M04 A3035 RMK A01 T10211041  RH  086%=      5-min Rain = 0
KRO1 140739Z 05009KT M02/M04 A3035 RMK A01 T10211041  RH  086%=      5-min Rain = 0
KRO1 140740Z 06008KT M02/M04 A3035 RMK A01 T10201041  RH  086%=      5-min Rain = 0
KRO1 140741Z 06008KT M02/M04 A3035 RMK A01 T10211042  RH  085%=      5-min Rain = 0
KRO1 140742Z 06009KT M02/M04 A3035 RMK A01 T10211042  RH  086%=      5-min Rain = 0
KRO1 140743Z 06008KT M02/M04 A3035 RMK A01 T10211042  RH  086%=      5-min Rain = 0
KRO1 140744Z 06008KT M02/M04 A3035 RMK A01 T10211042  RH  085%=      5-min Rain = 0
KRO1 140745Z 06008KT M02/M04 A3035 RMK A01 T10211042  RH  085%=      5-min Rain = 0
KRO1 140746Z 06009KT M02/M04 A3035 RMK A01 T10211042  RH  085%=      5-min Rain = 0
KRO1 140747Z 06008KT M02/M04 A3035 RMK A01 T10211042  RH  085%=      5-min Rain = 0
KRO1 140748Z 06009KT M02/M04 A3035 RMK A01 T10211042  RH  085%=      5-min Rain = 0
KRO1 140749Z 07009KT M02/M04 A3035 RMK A01 T10211043  RH  085%=      5-min Rain = 0
KRO1 140750Z 07008KT M02/M04 A3035 RMK A01 T10211044  RH  085%=      5-min Rain = 0
KRO1 140751Z 07008KT M02/M04 A3035 RMK A01 T10211043  RH  085%=      5-min Rain = 0
KRO1 140752Z 07009KT M02/M04 A3035 RMK A01 T10211044  RH  085%=      5-min Rain = 0
KRO1 140753Z 07008KT M02/M04 A3035 RMK A01 T10211044  RH  084%=      5-min Rain = 0
KRO1 140754Z 07008KT M02/M04 A3035 RMK A01 T10211043  RH  085%=      5-min Rain = 0
KRO1 140755Z 06008KT M02/M04 A3036 RMK A01 T10211043  RH  085%=      5-min Rain = 0
KRO1 140756Z 07008KT M02/M04 A3036 RMK A01 T10211043  RH  085%=      5-min Rain = 0
KRO1 140757Z 06008KT M02/M04 A3036 RMK A01 T10221043  RH  085%=      5-min Rain = 0
KRO1 140758Z 07007KT M02/M04 A3036 RMK A01 T10221044  RH  085%=      5-min Rain = 0
KRO1 140759Z 07007KT M02/M04 A3036 RMK A01 T10221044  RH  085%=      5-min Rain = 0
KRO1 140800Z 07007KT M02/M04 A3036 RMK A01 T10221044  RH  085%=      5-min Rain = 0
KRO1 140801Z 07008KT M02/M05 A3036 RMK A01 T10221045  RH  085%=      5-min Rain = 0
KRO1 140802Z 07008KT M02/M05 A3036 RMK A01 T10221045  RH  084%=      5-min Rain = 0
KRO1 140803Z 07007KT M02/M05 A3036 RMK A01 T10221046  RH  084%=      5-min Rain = 0
KRO1 140804Z 07008KT M02/M05 A3036 RMK A01 T10231046  RH  084%=      5-min Rain = 0
KRO1 140805Z 07007KT M02/M05 A3036 RMK A01 T10231046  RH  084%=      5-min Rain = 0
KRO1 140806Z 06006KT M02/M05 A3036 RMK A01 T10231045  RH  085%=      5-min Rain = 0
KRO1 140807Z 07006KT M02/M04 A3036 RMK A01 T10231044  RH  085%=      5-min Rain = 0
KRO1 140808Z 07008KT M02/M04 A3036 RMK A01 T10231044  RH  085%=      5-min Rain = 0
KRO1 140809Z 07007KT M02/M05 A3036 RMK A01 T10231046  RH  084%=      5-min Rain = 0
KRO1 140810Z 07007KT M02/M05 A3036 RMK A01 T10231046  RH  084%=      5-min Rain = 0
KRO1 140811Z 07008KT M02/M05 A3036 RMK A01 T10231046  RH  084%=      5-min Rain = 0
KRO1 140812Z 07008KT M02/M05 A3036 RMK A01 T10231047  RH  084%=      5-min Rain = 0
KRO1 140813Z 07008KT M02/M05 A3036 RMK A01 T10231048  RH  083%=      5-min Rain = 0
KRO1 140814Z 07008KT M02/M05 A3036 RMK A01 T10231048  RH  083%=      5-min Rain = 0
KRO1 140815Z 07007KT M02/M05 A3036 RMK A01 T10241048  RH  083%=      5-min Rain = 0
KRO1 140816Z 06008KT M02/M05 A3036 RMK A01 T10241046  RH  084%=      5-min Rain = 0
KRO1 140817Z 07007KT M02/M05 A3036 RMK A01 T10241047  RH  084%=      5-min Rain = 0
KRO1 140818Z 07008KT M02/M05 A3036 RMK A01 T10241047  RH  084%=      5-min Rain = 0
KRO1 140819Z 07007KT M02/M05 A3036 RMK A01 T10241048  RH  083%=      5-min Rain = 0
KRO1 140820Z 07006KT M02/M05 A3036 RMK A01 T10241048  RH  084%=      5-min Rain = 0
KRO1 140821Z 07007KT M02/M05 A3036 RMK A01 T10241047  RH  084%=      5-min Rain = 0
KRO1 140822Z 07006KT M02/M05 A3036 RMK A01 T10241047  RH  084%=      5-min Rain = 0
KRO1 140823Z 07006KT M02/M05 A3036 RMK A01 T10241048  RH  084%=      5-min Rain = 0
KRO1 140824Z 07006KT M02/M05 A3036 RMK A01 T10241048  RH  084%=      5-min Rain = 0
KRO1 140825Z 07006KT M02/M05 A3036 RMK A01 T10241047  RH  084%=      5-min Rain = 0
KRO1 140826Z 07005KT M03/M05 A3036 RMK A01 T10251047  RH  085%=      5-min Rain = 0
KRO1 140827Z 07005KT M03/M05 A3036 RMK A01 T10251047  RH  085%=      5-min Rain = 0
KRO1 140828Z 07005KT M03/M05 A3036 RMK A01 T10251047  RH  085%=      5-min Rain = 0
KRO1 140829Z 07006KT M03/M05 A3036 RMK A01 T10251047  RH  085%=      5-min Rain = 0
KRO1 140830Z 07006KT M03/M05 A3036 RMK A01 T10251047  RH  085%=      5-min Rain = 0
KRO1 140831Z 06006KT M03/M05 A3036 RMK A01 T10251047  RH  085%=      5-min Rain = 0
KRO1 140832Z 06007KT M03/M05 A3036 RMK A01 T10251047  RH  085%=      5-min Rain = 0
KRO1 140833Z 06005KT M03/M05 A3036 RMK A01 T10251046  RH  085%=      5-min Rain = 0
KRO1 140834Z 06006KT M03/M05 A3036 RMK A01 T10251046  RH  086%=      5-min Rain = 0
KRO1 140835Z 06005KT M02/M05 A3036 RMK A01 T10241045  RH  086%=      5-min Rain = 0
KRO1 140836Z 06005KT M03/M04 A3036 RMK A01 T10251044  RH  086%=      5-min Rain = 0
KRO1 140837Z 07005KT M03/M05 A3036 RMK A01 T10251045  RH  086%=      5-min Rain = 0
KRO1 140838Z 06005KT M02/M04 A3036 RMK A01 T10241044  RH  086%=      5-min Rain = 0
KRO1 140839Z 07005KT M03/M04 A3036 RMK A01 T10251044  RH  087%=      5-min Rain = 0
KRO1 140840Z 07006KT M03/M05 A3036 RMK A01 T10251045  RH  086%=      5-min Rain = 0
KRO1 140841Z 06005KT M03/M05 A3036 RMK A01 T10251045  RH  086%=      5-min Rain = 0
KRO1 140842Z 06006KT M02/M05 A3036 RMK A01 T10241045  RH  086%=      5-min Rain = 0
KRO1 140843Z 06007KT M03/M05 A3036 RMK A01 T10251046  RH  085%=      5-min Rain = 0
KRO1 140844Z 07006KT M03/M05 A3036 RMK A01 T10251046  RH  085%=      5-min Rain = 0
KRO1 140845Z 07006KT M02/M05 A3036 RMK A01 T10241047  RH  085%=      5-min Rain = 0
KRO1 140846Z 07005KT M02/M05 A3036 RMK A01 T10241046  RH  085%=      5-min Rain = 0
KRO1 140847Z 06006KT M03/M05 A3036 RMK A01 T10251045  RH  086%=      5-min Rain = 0
KRO1 140848Z 06006KT M03/M05 A3036 RMK A01 T10251046  RH  085%=      5-min Rain = 0
KRO1 140849Z 06007KT M03/M05 A3036 RMK A01 T10251046  RH  085%=      5-min Rain = 0
KRO1 140850Z 07007KT M03/M05 A3036 RMK A01 T10251047  RH  085%=      5-min Rain = 0
KRO1 140851Z 07007KT M03/M05 A3036 RMK A01 T10251048  RH  084%=      5-min Rain = 0
KRO1 140852Z 07007KT M03/M05 A3036 RMK A01 T10251048  RH  084%=      5-min Rain = 0
KRO1 140853Z 06007KT M03/M05 A3036 RMK A01 T10251048  RH  084%=      5-min Rain = 0
KRO1 140854Z 06007KT M03/M05 A3036 RMK A01 T10251048  RH  084%=      5-min Rain = 0
KRO1 140855Z 06006KT M03/M05 A3036 RMK A01 T10251048  RH  084%=      5-min Rain = 0
KRO1 140856Z 06007KT M03/M05 A3036 RMK A01 T10251047  RH  084%=      5-min Rain = 0
KRO1 140857Z 06007KT M03/M05 A3036 RMK A01 T10251048  RH  084%=      5-min Rain = 0
KRO1 140858Z 06007KT M03/M05 A3036 RMK A01 T10251048  RH  084%=      5-min Rain = 0
KRO1 140859Z 06007KT M03/M05 A3036 RMK A01 T10251048  RH  084%=      5-min Rain = 0
KRO1 140900Z 05006KT M03/M05 A3036 RMK A01 T10251048  RH  084%=      5-min Rain = 0
KRO1 140901Z 05006KT M03/M05 A3036 RMK A01 T10251047  RH  085%=      5-min Rain = 0
KRO1 140902Z 04005KT M03/M05 A3036 RMK A01 T10251046  RH  086%=      5-min Rain = 0
KRO1 140903Z 05006KT M03/M05 A3036 RMK A01 T10261046  RH  086%=      5-min Rain = 0
KRO1 140904Z 05006KT M03/M05 A3036 RMK A01 T10271047  RH  086%=      5-min Rain = 0
KRO1 140905Z 05006KT M03/M05 A3036 RMK A01 T10271047  RH  086%=      5-min Rain = 0
KRO1 140906Z 05006KT M03/M05 A3036 RMK A01 T10271047  RH  086%=      5-min Rain = 0
KRO1 140907Z 05005KT M03/M05 A3036 RMK A01 T10271047  RH  086%=      5-min Rain = 0
KRO1 140908Z 05005KT M03/M05 A3036 RMK A01 T10271047  RH  086%=      5-min Rain = 0
KRO1 140909Z 05006KT M03/M05 A3036 RMK A01 T10271047  RH  087%=      5-min Rain = 0
KRO1 140910Z 05005KT M03/M05 A3036 RMK A01 T10271046  RH  087%=      5-min Rain = 0
KRO1 140911Z 04006KT M03/M05 A3036 RMK A01 T10271046  RH  087%=      5-min Rain = 0
KRO1 140912Z 05006KT M03/M05 A3036 RMK A01 T10281047  RH  087%=      5-min Rain = 0
KRO1 140913Z 05006KT M03/M05 A3036 RMK A01 T10281047  RH  087%=      5-min Rain = 0
KRO1 140914Z 05006KT M03/M05 A3036 RMK A01 T10281047  RH  087%=      5-min Rain = 0
KRO1 140915Z 05005KT M03/M05 A3036 RMK A01 T10281047  RH  087%=      5-min Rain = 0
KRO1 140916Z 05006KT M03/M05 A3036 RMK A01 T10281047  RH  087%=      5-min Rain = 0
KRO1 140917Z 05006KT M03/M05 A3035 RMK A01 T10281047  RH  087%=      5-min Rain = 0
KRO1 140918Z 05006KT M03/M05 A3035 RMK A01 T10281048  RH  086%=      5-min Rain = 0
KRO1 140919Z 05006KT M03/M05 A3035 RMK A01 T10281049  RH  086%=      5-min Rain = 0
KRO1 140920Z 05007KT M03/M05 A3035 RMK A01 T10281049  RH  086%=      5-min Rain = 0
KRO1 140921Z 05007KT M03/M05 A3035 RMK A01 T10281048  RH  086%=      5-min Rain = 0
KRO1 140922Z 05007KT M03/M05 A3035 RMK A01 T10281048  RH  086%=      5-min Rain = 0
KRO1 140923Z 05007KT M03/M05 A3035 RMK A01 T10281049  RH  086%=      5-min Rain = 0
KRO1 140924Z 05007KT M03/M05 A3035 RMK A01 T10281049  RH  086%=      5-min Rain = 0
KRO1 140925Z 05006KT M03/M05 A3035 RMK A01 T10281049  RH  086%=      5-min Rain = 0
KRO1 140926Z 04006KT M03/M05 A3035 RMK A01 T10281048  RH  086%=      5-min Rain = 0
KRO1 140927Z 04007KT M03/M05 A3035 RMK A01 T10281047  RH  087%=      5-min Rain = 0
KRO1 140928Z 04007KT M03/M05 A3035 RMK A01 T10281048  RH  087%=      5-min Rain = 0
KRO1 140929Z 04006KT M03/M05 A3035 RMK A01 T10291048  RH  087%=      5-min Rain = 0
KRO1 140930Z 04007KT M03/M05 A3035 RMK A01 T10291048  RH  087%=      5-min Rain = 0
KRO1 140931Z 04007KT M03/M05 A3035 RMK A01 T10291048  RH  087%=      5-min Rain = 0
KRO1 140932Z 04007KT M03/M05 A3035 RMK A01 T10291048  RH  087%=      5-min Rain = 0
KRO1 140933Z 04006KT M03/M05 A3035 RMK A01 T10291048  RH  087%=      5-min Rain = 0
KRO1 140934Z 04005KT M03/M05 A3035 RMK A01 T10291048  RH  087%=      5-min Rain = 0
KRO1 140935Z 04005KT M03/M05 A3035 RMK A01 T10301048  RH  088%=      5-min Rain = 0
KRO1 140936Z 04005KT M03/M05 A3035 RMK A01 T10301047  RH  088%=      5-min Rain = 0
KRO1 140937Z 04006KT M03/M05 A3035 RMK A01 T10301047  RH  088%=      5-min Rain = 0
KRO1 140938Z 05005KT M03/M05 A3035 RMK A01 T10311048  RH  088%=      5-min Rain = 0
KRO1 140939Z 05006KT M03/M05 A3035 RMK A01 T10311048  RH  088%=      5-min Rain = 0
KRO1 140940Z 04006KT M03/M05 A3035 RMK A01 T10301048  RH  088%=      5-min Rain = 0
KRO1 140941Z 04006KT M03/M05 A3035 RMK A01 T10311048  RH  088%=      5-min Rain = 0
KRO1 140942Z 05005KT M03/M05 A3035 RMK A01 T10311048  RH  088%=      5-min Rain = 0
KRO1 140943Z 05005KT M03/M05 A3035 RMK A01 T10311048  RH  088%=      5-min Rain = 0
KRO1 140944Z 05006KT M03/M05 A3035 RMK A01 T10311048  RH  088%=      5-min Rain = 0
KRO1 140945Z 05005KT M03/M05 A3035 RMK A01 T10311050  RH  087%=      5-min Rain = 0
KRO1 140946Z 05005KT M03/M05 A3035 RMK A01 T10321051  RH  087%=      5-min Rain = 0
KRO1 140947Z 05006KT M03/M05 A3035 RMK A01 T10321051  RH  087%=      5-min Rain = 0
KRO1 140948Z 05006KT M03/M05 A3035 RMK A01 T10321051  RH  087%=      5-min Rain = 0
KRO1 140949Z 05006KT M03/M05 A3035 RMK A01 T10311051  RH  086%=      5-min Rain = 0
KRO1 140950Z 05006KT M03/M05 A3035 RMK A01 T10311052  RH  086%=      5-min Rain = 0
KRO1 140951Z 05006KT M03/M05 A3036 RMK A01 T10321051  RH  086%=      5-min Rain = 0
KRO1 140952Z 04005KT M03/M05 A3036 RMK A01 T10311051  RH  086%=      5-min Rain = 0
KRO1 140953Z 05004KT M03/M05 A3036 RMK A01 T10311051  RH  086%=      5-min Rain = 0
KRO1 140954Z 05004KT M03/M05 A3036 RMK A01 T10321051  RH  087%=      5-min Rain = 0
KRO1 140955Z 04005KT M03/M05 A3036 RMK A01 T10321051  RH  087%=      5-min Rain = 0
KRO1 140956Z 04005KT M03/M05 A3036 RMK A01 T10331051  RH  087%=      5-min Rain = 0
KRO1 140957Z 04005KT M03/M05 A3036 RMK A01 T10331051  RH  087%=      5-min Rain = 0
KRO1 140958Z 04004KT M03/M05 A3036 RMK A01 T10331051  RH  088%=      5-min Rain = 0
KRO1 140959Z 04005KT M03/M05 A3036 RMK A01 T10331050  RH  088%=      5-min Rain = 0
KRO1 141000Z 04005KT M03/M05 A3036 RMK A01 T10331052  RH  087%=      5-min Rain = 0
KRO1 141001Z 05004KT M03/M05 A3036 RMK A01 T10331052  RH  087%=      5-min Rain = 0
KRO1 141002Z 05004KT M03/M05 A3036 RMK A01 T10331052  RH  087%=      5-min Rain = 0
KRO1 141003Z 05005KT M03/M05 A3036 RMK A01 T10331052  RH  087%=      5-min Rain = 0
KRO1 141004Z 05005KT M03/M05 A3036 RMK A01 T10331052  RH  087%=      5-min Rain = 0
KRO1 141005Z 05005KT M03/M05 A3036 RMK A01 T10341053  RH  087%=      5-min Rain = 0
KRO1 141006Z 04005KT M03/M05 A3036 RMK A01 T10341053  RH  087%=      5-min Rain = 0
KRO1 141007Z 04005KT M03/M05 A3036 RMK A01 T10341053  RH  087%=      5-min Rain = 0
KRO1 141008Z 04006KT M03/M05 A3036 RMK A01 T10341052  RH  087%=      5-min Rain = 0
KRO1 141009Z 04006KT M03/M05 A3036 RMK A01 T10341052  RH  087%=      5-min Rain = 0
KRO1 141010Z 04006KT M03/M05 A3036 RMK A01 T10341052  RH  087%=      5-min Rain = 0
KRO1 141011Z 04006KT M03/M05 A3036 RMK A01 T10341052  RH  087%=      5-min Rain = 0
KRO1 141012Z 04006KT M03/M05 A3036 RMK A01 T10341052  RH  087%=      5-min Rain = 0
KRO1 141013Z 05005KT M03/M05 A3036 RMK A01 T10341052  RH  087%=      5-min Rain = 0
KRO1 141014Z 04006KT M03/M05 A3036 RMK A01 T10341052  RH  087%=      5-min Rain = 0
KRO1 141015Z 04005KT M03/M05 A3036 RMK A01 T10341052  RH  087%=      5-min Rain = 0
KRO1 141016Z 04006KT M03/M05 A3036 RMK A01 T10341052  RH  087%=      5-min Rain = 0
KRO1 141017Z 04006KT M03/M05 A3036 RMK A01 T10341052  RH  087%=      5-min Rain = 0
KRO1 141018Z 03007KT M03/M05 A3036 RMK A01 T10341052  RH  087%=      5-min Rain = 0
KRO1 141019Z 03006KT M03/M05 A3036 RMK A01 T10341052  RH  087%=      5-min Rain = 0
KRO1 141020Z 03006KT M03/M05 A3036 RMK A01 T10341051  RH  088%=      5-min Rain = 0
KRO1 141021Z 03006KT M03/M05 A3036 RMK A01 T10341052  RH  087%=      5-min Rain = 0
KRO1 141022Z 03006KT M03/M05 A3036 RMK A01 T10341052  RH  087%=      5-min Rain = 0
KRO1 141023Z 04006KT M03/M05 A3036 RMK A01 T10341052  RH  087%=      5-min Rain = 0
KRO1 141024Z 04007KT M03/M05 A3035 RMK A01 T10341052  RH  087%=      5-min Rain = 0
KRO1 141025Z 04007KT M04/M05 A3035 RMK A01 T10351054  RH  087%=      5-min Rain = 0
KRO1 141026Z 04007KT M04/M05 A3035 RMK A01 T10351054  RH  086%=      5-min Rain = 0
KRO1 141027Z 04007KT M04/M05 A3035 RMK A01 T10351054  RH  086%=      5-min Rain = 0
KRO1 141028Z 04007KT M04/M05 A3035 RMK A01 T10351054  RH  086%=      5-min Rain = 0
KRO1 141029Z 04006KT M04/M05 A3035 RMK A01 T10351054  RH  087%=      5-min Rain = 0
KRO1 141030Z 03006KT M04/M05 A3035 RMK A01 T10351053  RH  087%=      5-min Rain = 0
KRO1 141031Z 03006KT M04/M05 A3035 RMK A01 T10351053  RH  087%=      5-min Rain = 0
KRO1 141032Z 04006KT M04/M05 A3035 RMK A01 T10351054  RH  087%=      5-min Rain = 0
KRO1 141033Z 04006KT M04/M05 A3035 RMK A01 T10351054  RH  087%=      5-min Rain = 0
KRO1 141034Z 04007KT M04/M05 A3035 RMK A01 T10351054  RH  087%=      5-min Rain = 0
KRO1 141035Z 04007KT M04/M06 A3035 RMK A01 T10351055  RH  086%=      5-min Rain = 0
KRO1 141036Z 04007KT M04/M06 A3035 RMK A01 T10351056  RH  086%=      5-min Rain = 0
KRO1 141037Z 04006KT M04/M06 A3035 RMK A01 T10351055  RH  086%=      5-min Rain = 0
KRO1 141038Z 04006KT M04/M05 A3035 RMK A01 T10351054  RH  087%=      5-min Rain = 0
KRO1 141039Z 04006KT M04/M05 A3035 RMK A01 T10351054  RH  087%=      5-min Rain = 0
KRO1 141040Z 04006KT M04/M05 A3035 RMK A01 T10351054  RH  087%=      5-min Rain = 0
KRO1 141041Z 04007KT M04/M05 A3035 RMK A01 T10361054  RH  087%=      5-min Rain = 0
KRO1 141042Z 04007KT M04/M06 A3035 RMK A01 T10361055  RH  087%=      5-min Rain = 0
KRO1 141043Z 04007KT M04/M06 A3035 RMK A01 T10361055  RH  087%=      5-min Rain = 0
KRO1 141044Z 04007KT M04/M06 A3035 RMK A01 T10361056  RH  086%=      5-min Rain = 0
KRO1 141045Z 04007KT M04/M06 A3035 RMK A01 T10361056  RH  086%=      5-min Rain = 0
KRO1 141046Z 04007KT M04/M06 A3035 RMK A01 T10361056  RH  086%=      5-min Rain = 0
KRO1 141047Z 04007KT M04/M06 A3035 RMK A01 T10361056  RH  086%=      5-min Rain = 0
KRO1 141048Z 04007KT M04/M06 A3035 RMK A01 T10361056  RH  086%=      5-min Rain = 0
KRO1 141049Z 04007KT M04/M06 A3036 RMK A01 T10361055  RH  087%=      5-min Rain = 0
KRO1 141050Z 04006KT M04/M06 A3036 RMK A01 T10361055  RH  087%=      5-min Rain = 0
KRO1 141051Z 03006KT M04/M06 A3036 RMK A01 T10371055  RH  087%=      5-min Rain = 0
KRO1 141052Z 04006KT M04/M05 A3036 RMK A01 T10371054  RH  088%=      5-min Rain = 0
KRO1 141053Z 04006KT M04/M05 A3036 RMK A01 T10371054  RH  088%=      5-min Rain = 0
KRO1 141054Z 04006KT M04/M05 A3036 RMK A01 T10361054  RH  088%=      5-min Rain = 0
KRO1 141055Z 04006KT M04/M05 A3036 RMK A01 T10371054  RH  088%=      5-min Rain = 0
KRO1 141056Z 04007KT M04/M05 A3036 RMK A01 T10361054  RH  087%=      5-min Rain = 0
KRO1 141057Z 04006KT M04/M05 A3036 RMK A01 T10361054  RH  087%=      5-min Rain = 0
KRO1 141058Z 04007KT M04/M06 A3036 RMK A01 T10371055  RH  087%=      5-min Rain = 0
KRO1 141059Z 04006KT M04/M06 A3036 RMK A01 T10371055  RH  087%=      5-min Rain = 0
KRO1 141100Z 04006KT M04/M05 A3036 RMK A01 T10361054  RH  088%=      5-min Rain = 0
KRO1 141101Z 04007KT M04/M06 A3036 RMK A01 T10371055  RH  087%=      5-min Rain = 0
KRO1 141102Z 04007KT M04/M06 A3036 RMK A01 T10371056  RH  087%=      5-min Rain = 0
KRO1 141103Z 04007KT M04/M06 A3036 RMK A01 T10371056  RH  086%=      5-min Rain = 0
KRO1 141104Z 04007KT M04/M06 A3036 RMK A01 T10371056  RH  086%=      5-min Rain = 0
KRO1 141105Z 04007KT M04/M06 A3036 RMK A01 T10371056  RH  086%=      5-min Rain = 0
KRO1 141106Z 03006KT M04/M06 A3036 RMK A01 T10371056  RH  087%=      5-min Rain = 0
KRO1 141107Z 03007KT M04/M06 A3036 RMK A01 T10371056  RH  087%=      5-min Rain = 0
KRO1 141108Z 03007KT M04/M06 A3036 RMK A01 T10371056  RH  087%=      5-min Rain = 0
KRO1 141109Z 03008KT M04/M06 A3036 RMK A01 T10381057  RH  086%=      5-min Rain = 0
KRO1 141110Z 03009KT M04/M06 A3036 RMK A01 T10371057  RH  086%=      5-min Rain = 0
KRO1 141111Z 03008KT M04/M06 A3036 RMK A01 T10371057  RH  086%=      5-min Rain = 0
KRO1 141112Z 03007KT M04/M06 A3036 RMK A01 T10371058  RH  086%=      5-min Rain = 0
KRO1 141113Z 03008KT M04/M06 A3036 RMK A01 T10371057  RH  087%=      5-min Rain = 0
KRO1 141114Z 03007KT M04/M06 A3036 RMK A01 T10371057  RH  087%=      5-min Rain = 0
KRO1 141115Z 03007KT M04/M06 A3036 RMK A01 T10381057  RH  087%=      5-min Rain = 0
KRO1 141116Z 03007KT M04/M06 A3036 RMK A01 T10371056  RH  087%=      5-min Rain = 0
KRO1 141117Z 03007KT M04/M06 A3036 RMK A01 T10371056  RH  087%=      5-min Rain = 0
KRO1 141118Z 04008KT M04/M06 A3036 RMK A01 T10381056  RH  087%=      5-min Rain = 0
KRO1 141119Z 03008KT M04/M06 A3036 RMK A01 T10381057  RH  086%=      5-min Rain = 0
KRO1 141120Z 03008KT M04/M06 A3036 RMK A01 T10381058  RH  086%=      5-min Rain = 0
KRO1 141121Z 03007KT M04/M06 A3036 RMK A01 T10381058  RH  086%=      5-min Rain = 0
KRO1 141122Z 03008KT M04/M06 A3036 RMK A01 T10381058  RH  086%=      5-min Rain = 0
KRO1 141123Z 03008KT M04/M06 A3036 RMK A01 T10381058  RH  086%=      5-min Rain = 0
KRO1 141124Z 03007KT M04/M06 A3036 RMK A01 T10381058  RH  086%=      5-min Rain = 0
KRO1 141125Z 03007KT M04/M06 A3036 RMK A01 T10381058  RH  086%=      5-min Rain = 0
KRO1 141126Z 03008KT M04/M06 A3036 RMK A01 T10381058  RH  086%=      5-min Rain = 0
KRO1 141127Z 03008KT M04/M06 A3036 RMK A01 T10391060  RH  085%=      5-min Rain = 0
KRO1 141128Z 03007KT M04/M06 A3036 RMK A01 T10391060  RH  085%=      5-min Rain = 0
KRO1 141129Z 03007KT M04/M06 A3036 RMK A01 T10391060  RH  085%=      5-min Rain = 0
KRO1 141130Z 03008KT M04/M06 A3036 RMK A01 T10391059  RH  086%=      5-min Rain = 0
KRO1 141131Z 04007KT M04/M06 A3036 RMK A01 T10391059  RH  086%=      5-min Rain = 0
KRO1 141132Z 03006KT M04/M06 A3036 RMK A01 T10391059  RH  086%=      5-min Rain = 0
KRO1 141133Z 03007KT M04/M06 A3037 RMK A01 T10391059  RH  086%=      5-min Rain = 0
KRO1 141134Z 03007KT M04/M06 A3037 RMK A01 T10391060  RH  085%=      5-min Rain = 0
KRO1 141135Z 03007KT M04/M06 A3037 RMK A01 T10391060  RH  085%=      5-min Rain = 0
KRO1 141136Z 03007KT M04/M06 A3037 RMK A01 T10391060  RH  085%=      5-min Rain = 0
KRO1 141137Z 03007KT M04/M06 A3037 RMK A01 T10391060  RH  085%=      5-min Rain = 0
KRO1 141138Z 03007KT M04/M06 A3037 RMK A01 T10391060  RH  085%=      5-min Rain = 0
KRO1 141139Z 03006KT M04/M06 A3037 RMK A01 T10391060  RH  085%=      5-min Rain = 0
KRO1 141140Z 03007KT M04/M06 A3037 RMK A01 T10391060  RH  086%=      5-min Rain = 0
KRO1 141141Z 03007KT M04/M06 A3036 RMK A01 T10391059  RH  086%=      5-min Rain = 0
KRO1 141142Z 04006KT M04/M06 A3036 RMK A01 T10391060  RH  086%=      5-min Rain = 0
KRO1 141143Z 04007KT M04/M06 A3037 RMK A01 T10391060  RH  086%=      5-min Rain = 0
KRO1 141144Z 04007KT M04/M06 A3037 RMK A01 T10391060  RH  085%=      5-min Rain = 0
KRO1 141145Z 04006KT M04/M06 A3037 RMK A01 T10391061  RH  085%=      5-min Rain = 0
KRO1 141146Z 04006KT M04/M06 A3037 RMK A01 T10401061  RH  085%=      5-min Rain = 0
KRO1 141147Z 04006KT M04/M06 A3037 RMK A01 T10401061  RH  085%=      5-min Rain = 0
KRO1 141148Z 04007KT M04/M06 A3037 RMK A01 T10401061  RH  085%=      5-min Rain = 0
KRO1 141149Z 04007KT M04/M06 A3037 RMK A01 T10401061  RH  085%=      5-min Rain = 0
KRO1 141150Z 04006KT M04/M06 A3037 RMK A01 T10401062  RH  085%=      5-min Rain = 0
KRO1 141151Z 04006KT M04/M06 A3037 RMK A01 T10401061  RH  085%=      5-min Rain = 0
KRO1 141152Z 04006KT M04/M06 A3037 RMK A01 T10401061  RH  085%=      5-min Rain = 0
KRO1 141153Z 04006KT M04/M06 A3037 RMK A01 T10401061  RH  086%=      5-min Rain = 0
KRO1 141154Z 04006KT M04/M06 A3037 RMK A01 T10401060  RH  086%=      5-min Rain = 0
KRO1 141155Z 04006KT M04/M06 A3037 RMK A01 T10401060  RH  086%=      5-min Rain = 0
KRO1 141156Z 04006KT M04/M06 A3037 RMK A01 T10401060  RH  086%=      5-min Rain = 0
KRO1 141157Z 04006KT M04/M06 A3037 RMK A01 T10401060  RH  086%=      5-min Rain = 0
KRO1 141158Z 04006KT M04/M06 A3037 RMK A01 T10401060  RH  086%=      5-min Rain = 0
KRO1 141159Z 04006KT M04/M06 A3037 RMK A01 T10401060  RH  086%=      5-min Rain = 0
KRO1 141200Z 04006KT M04/M06 A3037 RMK A01 T10401060  RH  086%=      5-min Rain = 0
KRO1 141201Z 04006KT M04/M06 A3037 RMK A01 T10401060  RH  086%=      5-min Rain = 0
KRO1 141202Z 04006KT M04/M06 A3037 RMK A01 T10401059  RH  086%=      5-min Rain = 0
KRO1 141203Z 04006KT M04/M06 A3037 RMK A01 T10391059  RH  087%=      5-min Rain = 0
KRO1 141204Z 04006KT M04/M06 A3037 RMK A01 T10391058  RH  087%=      5-min Rain = 0
KRO1 141205Z 04006KT M04/M06 A3037 RMK A01 T10391058  RH  087%=      5-min Rain = 0
KRO1 141206Z 04006KT M04/M06 A3037 RMK A01 T10391059  RH  086%=      5-min Rain = 0
KRO1 141207Z 04005KT M04/M06 A3037 RMK A01 T10391059  RH  086%=      5-min Rain = 0
KRO1 141208Z 04006KT M04/M06 A3037 RMK A01 T10391058  RH  086%=      5-min Rain = 0
KRO1 141209Z 04006KT M04/M06 A3037 RMK A01 T10391059  RH  086%=      5-min Rain = 0
KRO1 141210Z 04006KT M04/M06 A3037 RMK A01 T10381058  RH  086%=      5-min Rain = 0
KRO1 141211Z 04007KT M04/M06 A3037 RMK A01 T10381057  RH  086%=      5-min Rain = 0
KRO1 141212Z 04006KT M04/M06 A3038 RMK A01 T10381058  RH  086%=      5-min Rain = 0
KRO1 141213Z 04006KT M04/M06 A3038 RMK A01 T10381058  RH  086%=      5-min Rain = 0
KRO1 141214Z 04007KT M04/M06 A3038 RMK A01 T10381057  RH  086%=      5-min Rain = 0
KRO1 141215Z 05006KT M04/M06 A3038 RMK A01 T10371058  RH  086%=      5-min Rain = 0
KRO1 141216Z 04007KT M04/M06 A3038 RMK A01 T10371058  RH  086%=      5-min Rain = 0
KRO1 141217Z 04007KT M04/M06 A3038 RMK A01 T10381058  RH  086%=      5-min Rain = 0
KRO1 141218Z 04007KT M04/M06 A3038 RMK A01 T10371058  RH  086%=      5-min Rain = 0
KRO1 141219Z 04007KT M04/M06 A3038 RMK A01 T10381058  RH  086%=      5-min Rain = 0
KRO1 141220Z 05007KT M04/M06 A3038 RMK A01 T10371058  RH  086%=      5-min Rain = 0
KRO1 141221Z 04006KT M04/M06 A3038 RMK A01 T10361056  RH  086%=      5-min Rain = 0
KRO1 141222Z 04007KT M04/M06 A3038 RMK A01 T10361055  RH  086%=      5-min Rain = 0
KRO1 141223Z 05008KT M04/M06 A3038 RMK A01 T10361057  RH  085%=      5-min Rain = 0
KRO1 141224Z 04007KT M04/M06 A3038 RMK A01 T10361059  RH  084%=      5-min Rain = 0
KRO1 141225Z 05007KT M04/M06 A3038 RMK A01 T10361060  RH  084%=      5-min Rain = 0
KRO1 141226Z 05009KT M04/M06 A3037 RMK A01 T10361060  RH  084%=      5-min Rain = 0
KRO1 141227Z 05008KT M04/M06 A3038 RMK A01 T10361060  RH  083%=      5-min Rain = 0
KRO1 141228Z 05007KT M04/M06 A3038 RMK A01 T10361060  RH  084%=      5-min Rain = 0
KRO1 141229Z 05008KT M04/M06 A3038 RMK A01 T10361058  RH  085%=      5-min Rain = 0
KRO1 141230Z 04008KT M04/M06 A3038 RMK A01 T10361059  RH  084%=      5-min Rain = 0
KRO1 141231Z 05009KT M04/M06 A3038 RMK A01 T10361060  RH  083%=      5-min Rain = 0
KRO1 141232Z 05008KT M04/M06 A3038 RMK A01 T10351058  RH  084%=      5-min Rain = 0
KRO1 141233Z 05009KT M04/M06 A3038 RMK A01 T10361058  RH  084%=      5-min Rain = 0
KRO1 141234Z 05008KT M04/M06 A3038 RMK A01 T10351059  RH  084%=      5-min Rain = 0
KRO1 141235Z 05008KT M04/M06 A3038 RMK A01 T10361059  RH  084%=      5-min Rain = 0
KRO1 141236Z 05008KT M04/M06 A3038 RMK A01 T10361059  RH  084%=      5-min Rain = 0
KRO1 141237Z 05009KT M04/M06 A3038 RMK A01 T10361059  RH  084%=      5-min Rain = 0
KRO1 141238Z 05009KT M04/M06 A3038 RMK A01 T10361060  RH  083%=      5-min Rain = 0
KRO1 141239Z 05008KT M04/M06 A3038 RMK A01 T10351060  RH  083%=      5-min Rain = 0
KRO1 141240Z 05008KT M04/M06 A3038 RMK A01 T10351058  RH  084%=      5-min Rain = 0
KRO1 141241Z 05008KT M04/M06 A3038 RMK A01 T10361058  RH  084%=      5-min Rain = 0
KRO1 141242Z 05009KT M04/M06 A3038 RMK A01 T10361060  RH  083%=      5-min Rain = 0
KRO1 141243Z 05009KT M04/M06 A3038 RMK A01 T10361060  RH  083%=      5-min Rain = 0
KRO1 141244Z 05008KT M04/M06 A3038 RMK A01 T10361060  RH  084%=      5-min Rain = 0
KRO1 141245Z 05008KT M04/M06 A3038 RMK A01 T10361060  RH  084%=      5-min Rain = 0
KRO1 141246Z 05008KT M04/M06 A3038 RMK A01 T10361059  RH  084%=      5-min Rain = 0
KRO1 141247Z 05009KT M04/M06 A3038 RMK A01 T10361059  RH  084%=      5-min Rain = 0
KRO1 141248Z 05009KT M04/M06 A3038 RMK A01 T10361059  RH  084%=      5-min Rain = 0
KRO1 141249Z 05008KT M04/M06 A3038 RMK A01 T10361060  RH  084%=      5-min Rain = 0
KRO1 141250Z 05008KT M04/M06 A3038 RMK A01 T10361060  RH  084%=      5-min Rain = 0
KRO1 141251Z 05007KT M04/M06 A3038 RMK A01 T10361059  RH  084%=      5-min Rain = 0
KRO1 141252Z 05008KT M04/M06 A3038 RMK A01 T10351058  RH  085%=      5-min Rain = 0
KRO1 141253Z 05007KT M04/M06 A3038 RMK A01 T10351058  RH  085%=      5-min Rain = 0
KRO1 141254Z 06008KT M04/M06 A3038 RMK A01 T10361059  RH  084%=      5-min Rain = 0
KRO1 141255Z 06008KT M04/M06 A3038 RMK A01 T10361058  RH  085%=      5-min Rain = 0
KRO1 141256Z 06006KT M04/M06 A3038 RMK A01 T10361058  RH  085%=      5-min Rain = 0
KRO1 141257Z 05006KT M04/M06 A3038 RMK A01 T10361057  RH  085%=      5-min Rain = 0
KRO1 141258Z 06007KT M04/M06 A3038 RMK A01 T10351056  RH  085%=      5-min Rain = 0
KRO1 141259Z 06007KT M04/M06 A3038 RMK A01 T10351058  RH  084%=      5-min Rain = 0
KRO1 141300Z 06007KT M04/M06 A3038 RMK A01 T10351058  RH  084%=      5-min Rain = 0
KRO1 141301Z 06007KT M04/M06 A3038 RMK A01 T10351057  RH  085%=      5-min Rain = 0
KRO1 141302Z 06007KT M04/M06 A3038 RMK A01 T10351057  RH  085%=      5-min Rain = 0
KRO1 141303Z 06007KT M04/M06 A3038 RMK A01 T10351056  RH  085%=      5-min Rain = 0
KRO1 141304Z 06007KT M04/M06 A3038 RMK A01 T10351056  RH  085%=      5-min Rain = 0
KRO1 141305Z 06006KT M04/M06 A3038 RMK A01 T10351058  RH  084%=      5-min Rain = 0
KRO1 141306Z 06006KT M04/M06 A3038 RMK A01 T10351058  RH  084%=      5-min Rain = 0
KRO1 141307Z 07006KT M04/M06 A3038 RMK A01 T10351058  RH  085%=      5-min Rain = 0
KRO1 141308Z 06006KT M04/M06 A3038 RMK A01 T10351057  RH  085%=      5-min Rain = 0
KRO1 141309Z 06006KT M04/M06 A3038 RMK A01 T10351057  RH  085%=      5-min Rain = 0
KRO1 141310Z 06006KT M04/M06 A3038 RMK A01 T10351058  RH  084%=      5-min Rain = 0
KRO1 141311Z 06005KT M04/M06 A3038 RMK A01 T10351059  RH  084%=      5-min Rain = 0
KRO1 141312Z 06006KT M04/M06 A3038 RMK A01 T10351057  RH  085%=      5-min Rain = 0
KRO1 141313Z 06006KT M04/M06 A3038 RMK A01 T10351056  RH  085%=      5-min Rain = 0
KRO1 141314Z 06005KT M03/M06 A3038 RMK A01 T10341057  RH  085%=      5-min Rain = 0
KRO1 141315Z 05005KT M03/M06 A3038 RMK A01 T10341056  RH  085%=      5-min Rain = 0
KRO1 141316Z 05005KT M04/M06 A3038 RMK A01 T10351056  RH  085%=      5-min Rain = 0
KRO1 141317Z 05006KT M04/M06 A3038 RMK A01 T10351057  RH  085%=      5-min Rain = 0
KRO1 141318Z 05005KT M04/M06 A3038 RMK A01 T10351057  RH  085%=      5-min Rain = 0
KRO1 141319Z 05005KT M04/M06 A3038 RMK A01 T10351057  RH  085%=      5-min Rain = 0
KRO1 141320Z 06006KT M04/M06 A3038 RMK A01 T10351057  RH  085%=      5-min Rain = 0
KRO1 141321Z 06006KT M04/M06 A3038 RMK A01 T10351056  RH  085%=      5-min Rain = 0
KRO1 141322Z 05006KT M04/M06 A3038 RMK A01 T10351057  RH  085%=      5-min Rain = 0
KRO1 141323Z 05006KT M04/M06 A3038 RMK A01 T10351056  RH  085%=      5-min Rain = 0
KRO1 141324Z 05006KT M03/M06 A3038 RMK A01 T10341055  RH  085%=      5-min Rain = 0
KRO1 141325Z 06005KT M03/M06 A3038 RMK A01 T10341056  RH  085%=      5-min Rain = 0
KRO1 141326Z 05006KT M03/M06 A3038 RMK A01 T10341056  RH  085%=      5-min Rain = 0
KRO1 141327Z 05005KT M03/M06 A3038 RMK A01 T10341056  RH  085%=      5-min Rain = 0
KRO1 141328Z 06004KT M04/M06 A3038 RMK A01 T10351056  RH  085%=      5-min Rain = 0
KRO1 141329Z 05005KT M04/M06 A3038 RMK A01 T10351056  RH  085%=      5-min Rain = 0
KRO1 141330Z 06005KT M04/M06 A3038 RMK A01 T10351055  RH  086%=      5-min Rain = 0
KRO1 141331Z 05005KT M04/M06 A3038 RMK A01 T10351056  RH  085%=      5-min Rain = 0
KRO1 141332Z 04005KT M04/M06 A3038 RMK A01 T10351056  RH  085%=      5-min Rain = 0
KRO1 141333Z 04006KT M04/M06 A3038 RMK A01 T10351056  RH  086%=      5-min Rain = 0
KRO1 141334Z 04006KT M04/M06 A3038 RMK A01 T10351055  RH  086%=      5-min Rain = 0
KRO1 141335Z 05006KT M04/M06 A3038 RMK A01 T10351056  RH  085%=      5-min Rain = 0
KRO1 141336Z 05005KT M04/M06 A3039 RMK A01 T10351056  RH  085%=      5-min Rain = 0
KRO1 141337Z 05004KT M03/M06 A3039 RMK A01 T10341055  RH  086%=      5-min Rain = 0
KRO1 141338Z 04004KT M03/M06 A3039 RMK A01 T10341055  RH  086%=      5-min Rain = 0
KRO1 141339Z 04004KT M03/M05 A3039 RMK A01 T10341054  RH  086%=      5-min Rain = 0
KRO1 141340Z 04004KT M03/M05 A3039 RMK A01 T10341053  RH  087%=      5-min Rain = 0
KRO1 141341Z 05004KT M03/M05 A3039 RMK A01 T10341053  RH  087%=      5-min Rain = 0
KRO1 141342Z 05005KT M03/M05 A3039 RMK A01 T10341053  RH  086%=      5-min Rain = 0
KRO1 141343Z 04004KT M03/M05 A3039 RMK A01 T10341054  RH  086%=      5-min Rain = 0
KRO1 141344Z 05005KT M03/M06 A3039 RMK A01 T10341055  RH  086%=      5-min Rain = 0
KRO1 141345Z 05005KT M03/M06 A3039 RMK A01 T10341055  RH  086%=      5-min Rain = 0
KRO1 141346Z 05004KT M03/M06 A3039 RMK A01 T10341055  RH  086%=      5-min Rain = 0
KRO1 141347Z 06004KT M03/M06 A3039 RMK A01 T10341055  RH  086%=      5-min Rain = 0
KRO1 141348Z 06004KT M03/M05 A3039 RMK A01 T10341054  RH  086%=      5-min Rain = 0
KRO1 141349Z 05004KT M03/M05 A3039 RMK A01 T10341054  RH  086%=      5-min Rain = 0
KRO1 141350Z 06004KT M03/M06 A3039 RMK A01 T10341055  RH  086%=      5-min Rain = 0
KRO1 141351Z 05004KT M03/M06 A3039 RMK A01 T10341055  RH  086%=      5-min Rain = 0
KRO1 141352Z 05005KT M03/M05 A3039 RMK A01 T10341054  RH  086%=      5-min Rain = 0
KRO1 141353Z 05004KT M03/M05 A3039 RMK A01 T10341053  RH  087%=      5-min Rain = 0
KRO1 141354Z 05004KT M03/M05 A3039 RMK A01 T10341054  RH  086%=      5-min Rain = 0
KRO1 141355Z 05004KT M03/M05 A3039 RMK A01 T10341054  RH  086%=      5-min Rain = 0
KRO1 141356Z 04005KT M03/M05 A3039 RMK A01 T10341053  RH  086%=      5-min Rain = 0
KRO1 141357Z 04005KT M03/M05 A3039 RMK A01 T10341054  RH  086%=      5-min Rain = 0
KRO1 141358Z 04005KT M03/M05 A3039 RMK A01 T10341053  RH  086%=      5-min Rain = 0
KRO1 141359Z 04005KT M03/M05 A3039 RMK A01 T10341053  RH  086%=      5-min Rain = 0
KRO1 141400Z 04005KT M03/M05 A3039 RMK A01 T10341053  RH  086%=      5-min Rain = 0
KRO1 141401Z 04005KT M03/M05 A3039 RMK A01 T10341053  RH  087%=      5-min Rain = 0
KRO1 141402Z 05005KT M03/M05 A3039 RMK A01 T10341053  RH  087%=      5-min Rain = 0
KRO1 141403Z 04005KT M03/M05 A3039 RMK A01 T10341053  RH  086%=      5-min Rain = 0
KRO1 141404Z 04004KT M03/M06 A3039 RMK A01 T10341055  RH  086%=      5-min Rain = 0
KRO1 141405Z 04005KT M03/M05 A304 RMK A01 T10341054  RH  086%=      5-min Rain = 0
KRO1 141406Z 04005KT M03/M05 A304 RMK A01 T10341054  RH  086%=      5-min Rain = 0
KRO1 141407Z 04005KT M03/M05 A304 RMK A01 T10341053  RH  086%=      5-min Rain = 0
KRO1 141408Z 04005KT M03/M05 A304 RMK A01 T10341053  RH  087%=      5-min Rain = 0
KRO1 141409Z 04005KT M03/M05 A304 RMK A01 T10331053  RH  087%=      5-min Rain = 0
KRO1 141410Z 04006KT M03/M05 A304 RMK A01 T10331052  RH  087%=      5-min Rain = 0
KRO1 141411Z 04006KT M03/M05 A304 RMK A01 T10331052  RH  087%=      5-min Rain = 0
KRO1 141412Z 03006KT M03/M05 A304 RMK A01 T10331053  RH  086%=      5-min Rain = 0
KRO1 141413Z 04005KT M03/M05 A304 RMK A01 T10331053  RH  086%=      5-min Rain = 0
KRO1 141414Z 04005KT M03/M05 A304 RMK A01 T10331053  RH  086%=      5-min Rain = 0
KRO1 141415Z 04006KT M03/M05 A304 RMK A01 T10331053  RH  087%=      5-min Rain = 0
KRO1 141416Z 04006KT M03/M05 A304 RMK A01 T10331052  RH  087%=      5-min Rain = 0
KRO1 141417Z 04006KT M03/M05 A304 RMK A01 T10331053  RH  086%=      5-min Rain = 0
KRO1 141418Z 04006KT M03/M05 A304 RMK A01 T10331052  RH  087%=      5-min Rain = 0
KRO1 141419Z 04006KT M03/M05 A304 RMK A01 T10331052  RH  087%=      5-min Rain = 0
KRO1 141420Z 04006KT M03/M05 A304 RMK A01 T10331053  RH  086%=      5-min Rain = 0
KRO1 141421Z 04006KT M03/M05 A304 RMK A01 T10331052  RH  086%=      5-min Rain = 0
KRO1 141422Z 04005KT M03/M05 A304 RMK A01 T10331053  RH  086%=      5-min Rain = 0
KRO1 141423Z 04005KT M03/M05 A304 RMK A01 T10331053  RH  086%=      5-min Rain = 0
KRO1 141424Z 04006KT M03/M05 A304 RMK A01 T10331051  RH  087%=      5-min Rain = 0
KRO1 141425Z 05006KT M03/M05 A304 RMK A01 T10331051  RH  087%=      5-min Rain = 0
KRO1 141426Z 04006KT M03/M05 A304 RMK A01 T10321050  RH  088%=      5-min Rain = 0
KRO1 141427Z 04005KT M03/M05 A304 RMK A01 T10321050  RH  087%=      5-min Rain = 0
KRO1 141428Z 04005KT M03/M05 A304 RMK A01 T10321051  RH  087%=      5-min Rain = 0
KRO1 141429Z 04005KT M03/M05 A304 RMK A01 T10321051  RH  087%=      5-min Rain = 0
KRO1 141430Z 03005KT M03/M05 A304 RMK A01 T10321051  RH  087%=      5-min Rain = 0
KRO1 141431Z 04006KT M03/M05 A304 RMK A01 T10321051  RH  087%=      5-min Rain = 0
KRO1 141432Z 04005KT M03/M05 A304 RMK A01 T10321051  RH  087%=      5-min Rain = 0
KRO1 141433Z 04005KT M03/M05 A304 RMK A01 T10321052  RH  087%=      5-min Rain = 0
KRO1 141434Z 04004KT M03/M05 A304 RMK A01 T10321051  RH  087%=      5-min Rain = 0
KRO1 141435Z 04005KT M03/M05 A304 RMK A01 T10321051  RH  087%=      5-min Rain = 0
KRO1 141436Z 04005KT M03/M05 A304 RMK A01 T10311049  RH  088%=      5-min Rain = 0
KRO1 141437Z 03005KT M03/M05 A304 RMK A01 T10321050  RH  087%=      5-min Rain = 0
KRO1 141438Z 04005KT M03/M05 A304 RMK A01 T10311049  RH  088%=      5-min Rain = 0
KRO1 141439Z 04005KT M03/M05 A304 RMK A01 T10311049  RH  088%=      5-min Rain = 0
KRO1 141440Z 05005KT M03/M05 A304 RMK A01 T10311049  RH  088%=      5-min Rain = 0
KRO1 141441Z 04005KT M03/M05 A304 RMK A01 T10311049  RH  087%=      5-min Rain = 0
KRO1 141442Z 04006KT M03/M05 A304 RMK A01 T10311049  RH  087%=      5-min Rain = 0
KRO1 141443Z 05005KT M03/M05 A304 RMK A01 T10311050  RH  087%=      5-min Rain = 0
KRO1 141444Z 05005KT M03/M05 A304 RMK A01 T10311050  RH  087%=      5-min Rain = 0
KRO1 141445Z 05004KT M03/M05 A304 RMK A01 T10311051  RH  086%=      5-min Rain = 0
KRO1 141446Z 05005KT M03/M05 A304 RMK A01 T10311050  RH  087%=      5-min Rain = 0
KRO1 141447Z 04004KT M03/M05 A304 RMK A01 T10301049  RH  087%=      5-min Rain = 0
KRO1 141448Z 05005KT M03/M05 A304 RMK A01 T10301048  RH  087%=      5-min Rain = 0
KRO1 141449Z 07005KT M03/M05 A304 RMK A01 T10301048  RH  087%=      5-min Rain = 0
KRO1 141450Z 05005KT M03/M05 A304 RMK A01 T10301049  RH  087%=      5-min Rain = 0
KRO1 141451Z 05005KT M03/M05 A304 RMK A01 T10301048  RH  087%=      5-min Rain = 0
KRO1 141452Z 05005KT M03/M05 A304 RMK A01 T10301048  RH  087%=      5-min Rain = 0
KRO1 141453Z 05005KT M03/M05 A304 RMK A01 T10301049  RH  087%=      5-min Rain = 0
KRO1 141454Z 05005KT M03/M05 A304 RMK A01 T10301050  RH  086%=      5-min Rain = 0
KRO1 141455Z 06005KT M03/M05 A304 RMK A01 T10301048  RH  087%=      5-min Rain = 0
KRO1 141456Z 04005KT M03/M05 A304 RMK A01 T10291047  RH  088%=      5-min Rain = 0
KRO1 141457Z 05004KT M03/M05 A304 RMK A01 T10291048  RH  087%=      5-min Rain = 0
KRO1 141458Z 04004KT M03/M05 A304 RMK A01 T10291048  RH  087%=      5-min Rain = 0
KRO1 141459Z 04005KT M03/M05 A304 RMK A01 T10291047  RH  088%=      5-min Rain = 0
KRO1 141500Z 04005KT M03/M05 A304 RMK A01 T10291048  RH  087%=      5-min Rain = 0
KRO1 141501Z 04004KT M03/M05 A304 RMK A01 T10301049  RH  086%=      5-min Rain = 0
KRO1 141502Z 04005KT M03/M05 A304 RMK A01 T10301049  RH  086%=      5-min Rain = 0
KRO1 141503Z 04005KT M03/M05 A304 RMK A01 T10301049  RH  087%=      5-min Rain = 0
KRO1 141504Z 05004KT M03/M05 A304 RMK A01 T10291048  RH  087%=      5-min Rain = 0
KRO1 141505Z 05005KT M03/M05 A304 RMK A01 T10301049  RH  087%=      5-min Rain = 0
KRO1 141506Z 05005KT M03/M05 A304 RMK A01 T10291049  RH  086%=      5-min Rain = 0
KRO1 141507Z 05004KT M03/M05 A304 RMK A01 T10301050  RH  086%=      5-min Rain = 0
KRO1 141508Z 05004KT M03/M05 A304 RMK A01 T10301048  RH  087%=      5-min Rain = 0
KRO1 141509Z 05004KT M03/M05 A304 RMK A01 T10291047  RH  087%=      5-min Rain = 0
KRO1 141510Z 04004KT M03/M05 A304 RMK A01 T10291046  RH  088%=      5-min Rain = 0
KRO1 141511Z 04005KT M03/M05 A304 RMK A01 T10281047  RH  087%=      5-min Rain = 0
KRO1 141512Z 06004KT M03/M05 A3041 RMK A01 T10281047  RH  087%=      5-min Rain = 0
KRO1 141513Z 07005KT M03/M05 A3041 RMK A01 T10281047  RH  087%=      5-min Rain = 0
KRO1 141514Z 05004KT M03/M05 A3041 RMK A01 T10281047  RH  087%=      5-min Rain = 0
KRO1 141515Z 06004KT M03/M05 A3041 RMK A01 T10281047  RH  087%=      5-min Rain = 0
KRO1 141516Z 05004KT M03/M05 A3041 RMK A01 T10281046  RH  087%=      5-min Rain = 0
KRO1 141517Z 05004KT M03/M05 A3041 RMK A01 T10281046  RH  087%=      5-min Rain = 0
KRO1 141518Z 08005KT M03/M04 A3041 RMK A01 T10261043  RH  088%=      5-min Rain = 0
KRO1 141519Z 08005KT M03/M04 A3041 RMK A01 T10261042  RH  089%=      5-min Rain = 0
KRO1 141520Z 07005KT M03/M04 A3041 RMK A01 T10251043  RH  088%=      5-min Rain = 0
KRO1 141521Z 06004KT M03/M04 A3041 RMK A01 T10261044  RH  087%=      5-min Rain = 0
KRO1 141522Z 07004KT M03/M05 A3041 RMK A01 T10261045  RH  087%=      5-min Rain = 0
KRO1 141523Z 06003KT M03/M05 A3041 RMK A01 T10261045  RH  087%=      5-min Rain = 0
KRO1 141524Z 06005KT M03/M05 A3041 RMK A01 T10261045  RH  087%=      5-min Rain = 0
KRO1 141525Z 06004KT M03/M04 A3041 RMK A01 T10261044  RH  087%=      5-min Rain = 0
KRO1 141526Z 05003KT M03/M04 A3041 RMK A01 T10261044  RH  087%=      5-min Rain = 0
KRO1 141527Z 04003KT M03/M05 A3041 RMK A01 T10261045  RH  087%=      5-min Rain = 0
KRO1 141528Z 04004KT M03/M05 A3041 RMK A01 T10271045  RH  087%=      5-min Rain = 0
KRO1 141529Z 05004KT M03/M05 A3041 RMK A01 T10271046  RH  087%=      5-min Rain = 0
KRO1 141530Z 07003KT M03/M05 A3041 RMK A01 T10271046  RH  087%=      5-min Rain = 0
KRO1 141531Z 07003KT M03/M05 A3041 RMK A01 T10261045  RH  087%=      5-min Rain = 0
KRO1 141532Z 07003KT M03/M05 A3041 RMK A01 T10271045  RH  087%=      5-min Rain = 0
KRO1 141533Z 05003KT M03/M05 A3041 RMK A01 T10261046  RH  087%=      5-min Rain = 0
KRO1 141534Z 03004KT M03/M04 A3041 RMK A01 T10261044  RH  087%=      5-min Rain = 0
KRO1 141535Z 04004KT M03/M04 A3041 RMK A01 T10251043  RH  088%=      5-min Rain = 0
KRO1 141536Z 05004KT M03/M04 A3041 RMK A01 T10251042  RH  088%=      5-min Rain = 0
KRO1 141537Z 04004KT M02/M04 A3041 RMK A01 T10241041  RH  088%=      5-min Rain = 0
KRO1 141538Z 05005KT M03/M04 A3041 RMK A01 T10251042  RH  088%=      5-min Rain = 0
KRO1 141539Z 07004KT M02/M04 A3041 RMK A01 T10241042  RH  088%=      5-min Rain = 0
KRO1 141540Z 06003KT M03/M05 A3041 RMK A01 T10251045  RH  087%=      5-min Rain = 0
KRO1 141541Z 06003KT M03/M05 A3041 RMK A01 T10261046  RH  086%=      5-min Rain = 0
KRO1 141542Z 05003KT M03/M05 A3041 RMK A01 T10261045  RH  087%=      5-min Rain = 0
KRO1 141543Z 05003KT M03/M04 A3041 RMK A01 T10261044  RH  087%=      5-min Rain = 0
KRO1 141544Z 05004KT M03/M04 A3041 RMK A01 T10251042  RH  088%=      5-min Rain = 0
KRO1 141545Z 05003KT M03/M04 A3041 RMK A01 T10251042  RH  088%=      5-min Rain = 0
KRO1 141546Z 05004KT M02/M04 A3041 RMK A01 T10241041  RH  088%=      5-min Rain = 0
KRO1 141547Z 05004KT M02/M04 A3041 RMK A01 T10241042  RH  088%=      5-min Rain = 0
KRO1 141548Z 05004KT M02/M04 A3041 RMK A01 T10241042  RH  088%=      5-min Rain = 0
KRO1 141549Z 05004KT M02/M04 A3041 RMK A01 T10241042  RH  088%=      5-min Rain = 0
KRO1 141550Z 04004KT M02/M04 A3041 RMK A01 T10241042  RH  088%=      5-min Rain = 0
KRO1 141551Z 04005KT M02/M04 A3041 RMK A01 T10231040  RH  088%=      5-min Rain = 0
KRO1 141552Z 04004KT M02/M04 A3041 RMK A01 T10231039  RH  089%=      5-min Rain = 0
KRO1 141553Z 05004KT M02/M04 A3041 RMK A01 T10221038  RH  089%=      5-min Rain = 0
KRO1 141554Z 05003KT M02/M04 A3041 RMK A01 T10231040  RH  088%=      5-min Rain = 0
KRO1 141555Z 04004KT M02/M04 A3041 RMK A01 T10231040  RH  088%=      5-min Rain = 0
KRO1 141556Z 04004KT M02/M04 A3041 RMK A01 T10231041  RH  088%=      5-min Rain = 0
KRO1 141557Z 05004KT M02/M04 A3041 RMK A01 T10231041  RH  088%=      5-min Rain = 0
KRO1 141558Z 05005KT M02/M04 A3041 RMK A01 T10231040  RH  088%=      5-min Rain = 0
KRO1 141559Z 05005KT M02/M04 A3041 RMK A01 T10221038  RH  089%=      5-min Rain = 0
KRO1 141600Z 05005KT M02/M04 A3041 RMK A01 T10221039  RH  088%=      5-min Rain = 0
KRO1 141601Z 04005KT M02/M04 A3041 RMK A01 T10221038  RH  089%=      5-min Rain = 0
KRO1 141602Z 04005KT M02/M04 A3041 RMK A01 T10211037  RH  089%=      5-min Rain = 0
KRO1 141603Z 05004KT M02/M04 A3041 RMK A01 T10211038  RH  088%=      5-min Rain = 0
KRO1 141604Z 05005KT M02/M04 A304 RMK A01 T10221039  RH  088%=      5-min Rain = 0
KRO1 141605Z 04005KT M02/M04 A304 RMK A01 T10221039  RH  088%=      5-min Rain = 0
KRO1 141606Z 05004KT M02/M04 A304 RMK A01 T10221040  RH  088%=      5-min Rain = 0
KRO1 141607Z 04005KT M02/M04 A304 RMK A01 T10221040  RH  088%=      5-min Rain = 0
KRO1 141608Z 05005KT M02/M04 A304 RMK A01 T10211037  RH  089%=      5-min Rain = 0
KRO1 141609Z 05004KT M02/M04 A304 RMK A01 T10211037  RH  089%=      5-min Rain = 0
KRO1 141610Z 07005KT M02/M04 A304 RMK A01 T10211038  RH  088%=      5-min Rain = 0
KRO1 141611Z 06005KT M02/M04 A304 RMK A01 T10201036  RH  089%=      5-min Rain = 0
KRO1 141612Z 07004KT M02/M04 A304 RMK A01 T10201036  RH  089%=      5-min Rain = 0
KRO1 141613Z 06004KT M02/M04 A304 RMK A01 T10201037  RH  088%=      5-min Rain = 0
KRO1 141614Z 06004KT M02/M04 A304 RMK A01 T10201036  RH  089%=      5-min Rain = 0
KRO1 141615Z 06004KT M02/M04 A304 RMK A01 T10201036  RH  089%=      5-min Rain = 0
KRO1 141616Z 06005KT M02/M04 A304 RMK A01 T10201036  RH  089%=      5-min Rain = 0
KRO1 141617Z 05004KT M02/M04 A304 RMK A01 T10191035  RH  089%=      5-min Rain = 0
KRO1 141618Z 05005KT M02/M03 A304 RMK A01 T10181034  RH  089%=      5-min Rain = 0
KRO1 141619Z 05004KT M02/M04 A304 RMK A01 T10191035  RH  089%=      5-min Rain = 0
KRO1 141620Z 05005KT M02/M04 A304 RMK A01 T10191036  RH  088%=      5-min Rain = 0
KRO1 141621Z 06004KT M02/M04 A304 RMK A01 T10201037  RH  088%=      5-min Rain = 0
KRO1 141622Z 05004KT M02/M04 A304 RMK A01 T10191035  RH  089%=      5-min Rain = 0
KRO1 141623Z 05004KT M02/M04 A304 RMK A01 T10191035  RH  089%=      5-min Rain = 0
KRO1 141624Z 06004KT M02/M03 A304 RMK A01 T10181033  RH  089%=      5-min Rain = 0
KRO1 141625Z 06005KT M02/M03 A304 RMK A01 T10171032  RH  090%=      5-min Rain = 0
KRO1 141626Z 06005KT M02/M03 A304 RMK A01 T10161032  RH  089%=      5-min Rain = 0
KRO1 141627Z 05006KT M02/M04 A304 RMK A01 T10181035  RH  088%=      5-min Rain = 0
KRO1 141628Z 06005KT M02/M04 A304 RMK A01 T10181035  RH  088%=      5-min Rain = 0
KRO1 141629Z 06005KT M02/M04 A304 RMK A01 T10181035  RH  088%=      5-min Rain = 0
KRO1 141630Z 06005KT M02/M03 A304 RMK A01 T10181034  RH  089%=      5-min Rain = 0
KRO1 141631Z 07004KT M02/M03 A304 RMK A01 T10171033  RH  089%=      5-min Rain = 0
KRO1 141632Z 05004KT M02/M04 A304 RMK A01 T10181035  RH  088%=      5-min Rain = 0
KRO1 141633Z 05004KT M02/M04 A304 RMK A01 T10181036  RH  088%=      5-min Rain = 0
KRO1 141634Z 05003KT M02/M04 A304 RMK A01 T10181035  RH  088%=      5-min Rain = 0
KRO1 141635Z 06003KT M02/M04 A304 RMK A01 T10181035  RH  088%=      5-min Rain = 0
KRO1 141636Z 05003KT M02/M03 A304 RMK A01 T10171032  RH  089%=      5-min Rain = 0
KRO1 141637Z 06004KT M02/M03 A304 RMK A01 T10161032  RH  089%=      5-min Rain = 0
KRO1 141638Z 06003KT M02/M03 A304 RMK A01 T10161032  RH  089%=      5-min Rain = 0
KRO1 141639Z 05003KT M02/M03 A304 RMK A01 T10151031  RH  089%=      5-min Rain = 0
KRO1 141640Z 04003KT M02/M03 A304 RMK A01 T10151031  RH  089%=      5-min Rain = 0
KRO1 141641Z 04004KT M01/M03 A304 RMK A01 T10141028  RH  090%=      5-min Rain = 0
KRO1 141642Z 05004KT M01/M03 A304 RMK A01 T10141030  RH  089%=      5-min Rain = 0
KRO1 141643Z 05004KT M01/M03 A304 RMK A01 T10141032  RH  088%=      5-min Rain = 0
KRO1 141644Z 04003KT M02/M03 A304 RMK A01 T10161034  RH  088%=      5-min Rain = 0
KRO1 141645Z 05002KT M02/M03 A304 RMK A01 T10151033  RH  088%=      5-min Rain = 0
KRO1 141646Z 07003KT M02/M03 A304 RMK A01 T10151032  RH  088%=      5-min Rain = 0
KRO1 141647Z 06003KT M01/M03 A304 RMK A01 T10141030  RH  089%=      5-min Rain = 0
KRO1 141648Z 06003KT M01/M03 A304 RMK A01 T10131030  RH  089%=      5-min Rain = 0
KRO1 141649Z 13002KT M01/M03 A304 RMK A01 T10121027  RH  089%=      5-min Rain = 0
KRO1 141650Z 13002KT M01/M03 A304 RMK A01 T10121028  RH  089%=      5-min Rain = 0
KRO1 141651Z 12003KT M01/M03 A304 RMK A01 T10101027  RH  088%=      5-min Rain = 0
KRO1 141652Z 11005KT M01/M03 A304 RMK A01 T10091025  RH  089%=      5-min Rain = 0
KRO1 141653Z 10004KT M01/M03 A304 RMK A01 T10081026  RH  088%=      5-min Rain = 0
KRO1 141654Z 10003KT M01/M03 A304 RMK A01 T10091029  RH  086%=      5-min Rain = 0
KRO1 141655Z 10005KT M01/M03 A304 RMK A01 T10081026  RH  088%=      5-min Rain = 0
KRO1 141656Z 13005KT M01/M02 A304 RMK A01 T10071023  RH  088%=      5-min Rain = 0
KRO1 141657Z 11004KT M01/M03 A304 RMK A01 T10061025  RH  087%=      5-min Rain = 0
KRO1 141658Z 10004KT M01/M03 A304 RMK A01 T10071028  RH  086%=      5-min Rain = 0
KRO1 141659Z 11004KT M01/M03 A304 RMK A01 T10081028  RH  086%=      5-min Rain = 0
KRO1 141700Z 12004KT M01/M03 A304 RMK A01 T10091029  RH  086%=      5-min Rain = 0
KRO1 141701Z 10003KT M01/M03 A304 RMK A01 T10091029  RH  086%=      5-min Rain = 0
KRO1 141702Z 10005KT M01/M03 A304 RMK A01 T10081027  RH  087%=      5-min Rain = 0
KRO1 141703Z 11005KT M01/M03 A304 RMK A01 T10071025  RH  088%=      5-min Rain = 0
KRO1 141704Z 13004KT M01/M03 A304 RMK A01 T10061025  RH  087%=      5-min Rain = 0
KRO1 141705Z 13004KT M01/M03 A304 RMK A01 T10071028  RH  086%=      5-min Rain = 0
KRO1 141706Z 13004KT M01/M03 A304 RMK A01 T10081029  RH  085%=      5-min Rain = 0
KRO1 141707Z 13005KT M01/M03 A304 RMK A01 T10071028  RH  086%=      5-min Rain = 0
KRO1 141708Z 14004KT M01/M03 A304 RMK A01 T10061026  RH  086%=      5-min Rain = 0
KRO1 141709Z 14004KT M00/M03 A304 RMK A01 T10041025  RH  086%=      5-min Rain = 0
KRO1 141710Z 13004KT M00/M03 A304 RMK A01 T10041026  RH  085%=      5-min Rain = 0
KRO1 141711Z 14004KT M00/M03 A304 RMK A01 T10041026  RH  085%=      5-min Rain = 0
KRO1 141712Z 14003KT M00/M03 A304 RMK A01 T10041027  RH  085%=      5-min Rain = 0
KRO1 141713Z 12003KT M00/M03 A304 RMK A01 T10041026  RH  085%=      5-min Rain = 0
KRO1 141714Z 10004KT M01/M03 A304 RMK A01 T10051027  RH  085%=      5-min Rain = 0
KRO1 141715Z 12003KT M01/M03 A304 RMK A01 T10061028  RH  085%=      5-min Rain = 0
KRO1 141716Z 12002KT M01/M03 A304 RMK A01 T10061028  RH  085%=      5-min Rain = 0
KRO1 141717Z 12005KT M01/M03 A304 RMK A01 T10061027  RH  086%=      5-min Rain = 0
KRO1 141718Z 11005KT M01/M03 A304 RMK A01 T10061026  RH  086%=      5-min Rain = 0
KRO1 141719Z 12004KT M01/M03 A304 RMK A01 T10061026  RH  086%=      5-min Rain = 0
KRO1 141720Z 12004KT M01/M02 A3039 RMK A01 T10051023  RH  087%=      5-min Rain = 0
KRO1 141721Z 10005KT M00/M02 A3039 RMK A01 T10041023  RH  087%=      5-min Rain = 0
KRO1 141722Z 11004KT M00/M02 A3039 RMK A01 T10041024  RH  086%=      5-min Rain = 0
KRO1 141723Z 09004KT M00/M03 A3039 RMK A01 T10041025  RH  086%=      5-min Rain = 0
KRO1 141724Z 11003KT M00/M03 A3039 RMK A01 T10041025  RH  086%=      5-min Rain = 0
KRO1 141725Z 14003KT M01/M03 A3039 RMK A01 T10051027  RH  085%=      5-min Rain = 0
KRO1 141726Z 13003KT M00/M02 A3039 RMK A01 T10041024  RH  086%=      5-min Rain = 0
KRO1 141727Z 11005KT M00/M02 A3039 RMK A01 T10021022  RH  087%=      5-min Rain = 0
KRO1 141728Z 12005KT M00/M02 A3039 RMK A01 T10011020  RH  087%=      5-min Rain = 0
KRO1 141729Z 13005KT 00/02 A3039 RMK A01 T00-00-21  RH  086%=      5-min Rain = 0
KRO1 141730Z 13005KT 00/M02 A3039 RMK A01 T00011022  RH  085%=      5-min Rain = 0
KRO1 141731Z 13005KT 00/M02 A3039 RMK A01 T00011023  RH  084%=      5-min Rain = 0
KRO1 141732Z 12006KT 00/M02 A3039 RMK A01 T00011021  RH  085%=      5-min Rain = 0
KRO1 141733Z 14004KT 00/M02 A3039 RMK A01 T00011022  RH  084%=      5-min Rain = 0
KRO1 141734Z 14004KT 00/M02 A3039 RMK A01 T00011023  RH  084%=      5-min Rain = 0
KRO1 141735Z 14005KT 00/M02 A3039 RMK A01 T00011023  RH  084%=      5-min Rain = 0
KRO1 141736Z 14005KT 00/M02 A3039 RMK A01 T00011023  RH  084%=      5-min Rain = 0
KRO1 141737Z 14005KT 00/M02 A3039 RMK A01 T00011024  RH  084%=      5-min Rain = 0
KRO1 141738Z 14006KT 00/M02 A3039 RMK A01 T00011023  RH  084%=      5-min Rain = 0
KRO1 141739Z 12005KT 00/M02 A3038 RMK A01 T00011024  RH  084%=      5-min Rain = 0
KRO1 141740Z 12006KT 00/M02 A3038 RMK A01 T00011022  RH  085%=      5-min Rain = 0
KRO1 141741Z 12005KT 00/M02 A3038 RMK A01 T00021019  RH  086%=      5-min Rain = 0
KRO1 141742Z 12005KT 00/M02 A3038 RMK A01 T00041018  RH  085%=      5-min Rain = 0
KRO1 141743Z 12005KT 00/M02 A3038 RMK A01 T00031022  RH  083%=      5-min Rain = 0
KRO1 141744Z 11005KT 00/M02 A3038 RMK A01 T00021023  RH  083%=      5-min Rain = 0
KRO1 141745Z 11006KT 00/M02 A3038 RMK A01 T00021021  RH  085%=      5-min Rain = 0
KRO1 141746Z 11004KT 00/M02 A3038 RMK A01 T00031018  RH  086%=      5-min Rain = 0
KRO1 141747Z 12005KT 01/M02 A3038 RMK A01 T00051016  RH  086%=      5-min Rain = 0
KRO1 141748Z 11006KT 01/M02 A3038 RMK A01 T00051019  RH  084%=      5-min Rain = 0
KRO1 141749Z 10006KT 01/M02 A3038 RMK A01 T00051019  RH  084%=      5-min Rain = 0
KRO1 141750Z 11006KT 00/M02 A3038 RMK A01 T00041021  RH  083%=      5-min Rain = 0
KRO1 141751Z 13006KT 00/M02 A3038 RMK A01 T00041020  RH  084%=      5-min Rain = 0
KRO1 141752Z 13005KT 01/M02 A3038 RMK A01 T00051019  RH  084%=      5-min Rain = 0
KRO1 141753Z 12006KT 01/M02 A3038 RMK A01 T00061020  RH  083%=      5-min Rain = 0
KRO1 141754Z 10006KT 01/M02 A3037 RMK A01 T00081017  RH  084%=      5-min Rain = 0
KRO1 141755Z 10005KT 01/M02 A3037 RMK A01 T00081018  RH  083%=      5-min Rain = 0
KRO1 141756Z 11007KT 01/M02 A3037 RMK A01 T00071019  RH  083%=      5-min Rain = 0
KRO1 141757Z 11007KT 01/M02 A3037 RMK A01 T00071019  RH  083%=      5-min Rain = 0
KRO1 141758Z 10006KT 01/M02 A3037 RMK A01 T00081017  RH  084%=      5-min Rain = 0
KRO1 141759Z 12005KT 01/M02 A3037 RMK A01 T00091017  RH  083%=      5-min Rain = 0
KRO1 141800Z 11006KT 01/M02 A3037 RMK A01 T00081019  RH  082%=      5-min Rain = 0
KRO1 141801Z 11005KT 01/M02 A3037 RMK A01 T00081019  RH  083%=      5-min Rain = 0
KRO1 141802Z 13003KT 01/M02 A3037 RMK A01 T00081020  RH  082%=      5-min Rain = 0
KRO1 141803Z 10004KT 01/M02 A3037 RMK A01 T00071020  RH  082%=      5-min Rain = 0
KRO1 141804Z 11003KT 01/M02 A3037 RMK A01 T00081016  RH  084%=      5-min Rain = 0
KRO1 141805Z 13004KT 01/M02 A3037 RMK A01 T00101015  RH  084%=      5-min Rain = 0
KRO1 141806Z 12005KT 01/M02 A3037 RMK A01 T00111016  RH  082%=      5-min Rain = 0
KRO1 141807Z 14006KT 01/M02 A3036 RMK A01 T00111018  RH  081%=      5-min Rain = 0
KRO1 141808Z 15004KT 01/M02 A3036 RMK A01 T00111018  RH  081%=      5-min Rain = 0
KRO1 141809Z 15004KT 01/M02 A3036 RMK A01 T00141017  RH  080%=      5-min Rain = 0
KRO1 141810Z 13003KT 02/M02 A3036 RMK A01 T00161016  RH  079%=      5-min Rain = 0
KRO1 141811Z 13004KT 02/M02 A3036 RMK A01 T00181015  RH  079%=      5-min Rain = 0
KRO1 141812Z 14006KT 02/M02 A3036 RMK A01 T00171017  RH  078%=      5-min Rain = 0
KRO1 141813Z 13007KT 02/M01 A3036 RMK A01 T00201012  RH  079%=      5-min Rain = 0
KRO1 141814Z 11006KT 02/M01 A3036 RMK A01 T00231011  RH  079%=      5-min Rain = 0
KRO1 141815Z 10006KT 02/M01 A3036 RMK A01 T00231011  RH  078%=      5-min Rain = 0
KRO1 141816Z 09006KT 02/M01 A3036 RMK A01 T00231009  RH  080%=      5-min Rain = 0
KRO1 141817Z 11007KT 02/M01 A3036 RMK A01 T00231008  RH  080%=      5-min Rain = 0
KRO1 141818Z 12007KT 02/M01 A3036 RMK A01 T00231011  RH  078%=      5-min Rain = 0
KRO1 141819Z 11007KT 02/M01 A3035 RMK A01 T00221012  RH  078%=      5-min Rain = 0
KRO1 141820Z 13007KT 02/M01 A3035 RMK A01 T00221010  RH  079%=      5-min Rain = 0
KRO1 141821Z 14004KT 02/M01 A3035 RMK A01 T00241012  RH  077%=      5-min Rain = 0
KRO1 141822Z 14004KT 02/M02 A3035 RMK A01 T00231015  RH  076%=      5-min Rain = 0
KRO1 141823Z 12006KT 02/M01 A3035 RMK A01 T00241012  RH  077%=      5-min Rain = 0
KRO1 141824Z 12005KT 03/M01 A3035 RMK A01 T00251012  RH  077%=      5-min Rain = 0
KRO1 141825Z 13006KT 02/M01 A3035 RMK A01 T00241012  RH  077%=      5-min Rain = 0
KRO1 141826Z 14007KT 03/M01 A3035 RMK A01 T00261009  RH  078%=      5-min Rain = 0
KRO1 141827Z 14007KT 03/M01 A3035 RMK A01 T00271011  RH  076%=      5-min Rain = 0
KRO1 141828Z 14005KT 03/M01 A3035 RMK A01 T00301009  RH  076%=      5-min Rain = 0
KRO1 141829Z 12008KT 03/M01 A3035 RMK A01 T00331006  RH  075%=      5-min Rain = 0
KRO1 141830Z 15006KT 03/M01 A3035 RMK A01 T00331009  RH  074%=      5-min Rain = 0
KRO1 141831Z 14005KT 03/M01 A3035 RMK A01 T00321010  RH  074%=      5-min Rain = 0
KRO1 141832Z 13005KT 03/M00 A3035 RMK A01 T00341004  RH  076%=      5-min Rain = 0
KRO1 141833Z 12006KT 04/M01 A3035 RMK A01 T00351008  RH  073%=      5-min Rain = 0
KRO1 141834Z 15007KT 03/M01 A3035 RMK A01 T00341010  RH  073%=      5-min Rain = 0
KRO1 141835Z 15005KT 03/M01 A3035 RMK A01 T00331014  RH  071%=      5-min Rain = 0
KRO1 141836Z 14005KT 03/M01 A3035 RMK A01 T00321014  RH  071%=      5-min Rain = 0
KRO1 141837Z 14004KT 03/M01 A3035 RMK A01 T00321012  RH  073%=      5-min Rain = 0
KRO1 141838Z 16005KT 03/M01 A3035 RMK A01 T00341008  RH  074%=      5-min Rain = 0
KRO1 141839Z 15005KT 04/M01 A3035 RMK A01 T00351012  RH  071%=      5-min Rain = 0
KRO1 141840Z 16004KT 03/M01 A3035 RMK A01 T00341013  RH  071%=      5-min Rain = 0
KRO1 141841Z 18005KT 03/M01 A3035 RMK A01 T00331012  RH  072%=      5-min Rain = 0
KRO1 141842Z 15005KT 03/M01 A3034 RMK A01 T00331013  RH  072%=      5-min Rain = 0
KRO1 141843Z 14007KT 04/M01 A3034 RMK A01 T00361008  RH  073%=      5-min Rain = 0
KRO1 141844Z 15004KT 04/M01 A3034 RMK A01 T00351013  RH  071%=      5-min Rain = 0
KRO1 141845Z 14004KT 03/M01 A3034 RMK A01 T00341013  RH  071%=      5-min Rain = 0
KRO1 141846Z 15006KT 04/M01 A3034 RMK A01 T00371005  RH  074%=      5-min Rain = 0
KRO1 141847Z 16004KT 04/M01 A3034 RMK A01 T00391011  RH  070%=      5-min Rain = 0
KRO1 141848Z 15005KT 04/M01 A3034 RMK A01 T00381010  RH  071%=      5-min Rain = 0
KRO1 141849Z 15006KT 04/M01 A3034 RMK A01 T00411007  RH  071%=      5-min Rain = 0
KRO1 141850Z 14005KT 04/M01 A3034 RMK A01 T00411011  RH  069%=      5-min Rain = 0
KRO1 141851Z 14005KT 04/M02 A3034 RMK A01 T00371015  RH  069%=      5-min Rain = 0
KRO1 141852Z 14005KT 04/M01 A3034 RMK A01 T00361011  RH  072%=      5-min Rain = 0
KRO1 141853Z 16005KT 04/M01 A3034 RMK A01 T00351011  RH  072%=      5-min Rain = 0
KRO1 141854Z 14005KT 04/M01 A3034 RMK A01 T00361012  RH  071%=      5-min Rain = 0
KRO1 141855Z 13007KT 04/M01 A3034 RMK A01 T00401005  RH  073%=      5-min Rain = 0
KRO1 141856Z 12005KT 04/M01 A3034 RMK A01 T00411007  RH  071%=      5-min Rain = 0
KRO1 141857Z 14003KT 04/M01 A3033 RMK A01 T00401008  RH  071%=      5-min Rain = 0
KRO1 141858Z 15003KT 04/M01 A3033 RMK A01 T00401007  RH  071%=      5-min Rain = 0
KRO1 141859Z 13004KT 04/M00 A3033 RMK A01 T00421002  RH  073%=      5-min Rain = 0
KRO1 141900Z 15005KT 04/M00 A3033 RMK A01 T00431003  RH  072%=      5-min Rain = 0
KRO1 141901Z 15004KT 04/M01 A3033 RMK A01 T00421008  RH  070%=      5-min Rain = 0
KRO1 141902Z 15006KT 04/M01 A3033 RMK A01 T00431005  RH  071%=      5-min Rain = 0
KRO1 141903Z 14006KT 05/M00 A3033 RMK A01 T00461004  RH  070%=      5-min Rain = 0
KRO1 141904Z 16006KT 05/M00 A3033 RMK A01 T00481002  RH  070%=      5-min Rain = 0
KRO1 141905Z 15007KT 05/M01 A3033 RMK A01 T00481005  RH  068%=      5-min Rain = 0
KRO1 141906Z 13007KT 05/M01 A3033 RMK A01 T00481005  RH  069%=      5-min Rain = 0
KRO1 141907Z 13006KT 04/M01 A3033 RMK A01 T00441009  RH  068%=      5-min Rain = 0
KRO1 141908Z 12005KT 04/M01 A3033 RMK A01 T00421006  RH  071%=      5-min Rain = 0
KRO1 141909Z 12004KT 04/M01 A3033 RMK A01 T00421005  RH  071%=      5-min Rain = 0
KRO1 141910Z 11005KT 04/M00 A3033 RMK A01 T00421003  RH  073%=      5-min Rain = 0
KRO1 141911Z 13005KT 04/00 A3033 RMK A01 T00430000  RH  074%=      5-min Rain = 0
KRO1 141912Z 14002KT 04/M01 A3033 RMK A01 T00411005  RH  072%=      5-min Rain = 0
KRO1 141913Z 08005KT 04/M00 A3033 RMK A01 T00401002  RH  074%=      5-min Rain = 0
KRO1 141914Z 09005KT 04/00 A3033 RMK A01 T003800-0  RH  076%=      5-min Rain = 0
KRO1 141915Z 09006KT 04/01 A3033 RMK A01 T00400006  RH  079%=      5-min Rain = 0
KRO1 141916Z 13006KT 04/01 A3033 RMK A01 T00440009  RH  078%=      5-min Rain = 0
KRO1 141917Z 13003KT 05/00 A3033 RMK A01 T00460000  RH  072%=      5-min Rain = 0
KRO1 141918Z 12005KT 05/M00 A3033 RMK A01 T00451004  RH  070%=      5-min Rain = 0
KRO1 141919Z 13005KT 04/M00 A3033 RMK A01 T00441004  RH  071%=      5-min Rain = 0
KRO1 141920Z 13004KT 04/M01 A3033 RMK A01 T00421006  RH  071%=      5-min Rain = 0
KRO1 141921Z 13002KT 04/M01 A3033 RMK A01 T00421006  RH  071%=      5-min Rain = 0
KRO1 141922Z 12003KT 04/M00 A3033 RMK A01 T00421002  RH  073%=      5-min Rain = 0
KRO1 141923Z 11005KT 05/00 A3032 RMK A01 T00450000  RH  073%=      5-min Rain = 0
KRO1 141924Z 12004KT 05/M00 A3032 RMK A01 T00451003  RH  071%=      5-min Rain = 0
KRO1 141925Z 11002KT 04/M01 A3032 RMK A01 T00441005  RH  070%=      5-min Rain = 0
KRO1 141926Z 13003KT 04/M01 A3032 RMK A01 T00421005  RH  071%=      5-min Rain = 0
KRO1 141927Z 14003KT 04/M01 A3032 RMK A01 T00431005  RH  071%=      5-min Rain = 0
KRO1 141928Z 15003KT 04/M01 A3032 RMK A01 T00441007  RH  070%=      5-min Rain = 0
KRO1 141929Z 15003KT 04/M01 A3032 RMK A01 T00441006  RH  070%=      5-min Rain = 0
KRO1 141930Z 14003KT 05/M00 A3032 RMK A01 T00451001  RH  072%=      5-min Rain = 0
KRO1 141931Z 12004KT 05/00 A3032 RMK A01 T00490003  RH  072%=      5-min Rain = 0
KRO1 141932Z 14003KT 05/00 A3032 RMK A01 T00500000  RH  070%=      5-min Rain = 0
KRO1 141933Z 14001KT 05/M00 A3031 RMK A01 T00501003  RH  069%=      5-min Rain = 0
KRO1 141934Z 12002KT 05/M00 A3031 RMK A01 T00501002  RH  069%=      5-min Rain = 0
KRO1 141935Z 12004KT 05/00 A3031 RMK A01 T00490001  RH  071%=      5-min Rain = 0
KRO1 141936Z 12004KT 05/00 A3031 RMK A01 T00490002  RH  072%=      5-min Rain = 0
KRO1 141937Z 12004KT 05/00 A3031 RMK A01 T00500004  RH  072%=      5-min Rain = 0
KRO1 141938Z 11003KT 05/01 A3031 RMK A01 T00530007  RH  072%=      5-min Rain = 0
KRO1 141939Z 12005KT 05/00 A3031 RMK A01 T00530004  RH  071%=      5-min Rain = 0
KRO1 141940Z 13002KT 05/00 A3031 RMK A01 T00530002  RH  069%=      5-min Rain = 0
KRO1 141941Z 11002KT 05/00 A3031 RMK A01 T00520001  RH  069%=      5-min Rain = 0
KRO1 141942Z 08004KT 05/00 A303 RMK A01 T00520003  RH  071%=      5-min Rain = 0
KRO1 141943Z 10005KT 05/01 A303 RMK A01 T00520008  RH  074%=      5-min Rain = 0
KRO1 141944Z 11006KT 05/00 A303 RMK A01 T00520004  RH  071%=      5-min Rain = 0
KRO1 141945Z 12005KT 05/01 A303 RMK A01 T00530005  RH  071%=      5-min Rain = 0
KRO1 141946Z 12006KT 05/00 A303 RMK A01 T00540002  RH  069%=      5-min Rain = 0
KRO1 141947Z 12004KT 05/00 A303 RMK A01 T00530001  RH  069%=      5-min Rain = 0
KRO1 141948Z 12003KT 05/00 A303 RMK A01 T00530002  RH  069%=      5-min Rain = 0
KRO1 141949Z 13004KT 05/00 A303 RMK A01 T00520001  RH  070%=      5-min Rain = 0
KRO1 141950Z 14003KT 05/00 A303 RMK A01 T005300-0  RH  068%=      5-min Rain = 0
KRO1 141951Z 13001KT 05/M00 A303 RMK A01 T00531002  RH  068%=      5-min Rain = 0
KRO1 141952Z 08001KT 05/00 A303 RMK A01 T005400-0  RH  068%=      5-min Rain = 0
KRO1 141953Z 07002KT 06/00 A303 RMK A01 T00550004  RH  070%=      5-min Rain = 0
KRO1 141954Z 12004KT 06/01 A3029 RMK A01 T00570006  RH  070%=      5-min Rain = 0
KRO1 141955Z 14004KT 06/01 A3029 RMK A01 T00570005  RH  069%=      5-min Rain = 0
KRO1 141956Z 16003KT 06/00 A3029 RMK A01 T00580002  RH  067%=      5-min Rain = 0
KRO1 141957Z 16003KT 06/00 A3029 RMK A01 T00590000  RH  066%=      5-min Rain = 0
KRO1 141958Z 17001KT 06/M00 A3029 RMK A01 T00591001  RH  066%=      5-min Rain = 0
KRO1 141959Z 13002KT 06/00 A3029 RMK A01 T00580002  RH  067%=      5-min Rain = 0
KRO1 142000Z 12001KT 06/00 A3029 RMK A01 T00580003  RH  068%=      5-min Rain = 0
KRO1 142001Z 00000KT 06/00 A3029 RMK A01 T00580002  RH  067%=      5-min Rain = 0
KRO1 142002Z 06001KT 06/01 A3029 RMK A01 T00580005  RH  069%=      5-min Rain = 0
KRO1 142003Z 08003KT 06/01 A3029 RMK A01 T00600012  RH  071%=      5-min Rain = 0
KRO1 142004Z 09003KT 06/01 A3029 RMK A01 T00620014  RH  071%=      5-min Rain = 0
KRO1 142005Z 11003KT 06/01 A3028 RMK A01 T00630009  RH  069%=      5-min Rain = 0
KRO1 142006Z 11003KT 06/01 A3028 RMK A01 T00630008  RH  068%=      5-min Rain = 0
KRO1 142007Z 10002KT 06/00 A3028 RMK A01 T00610003  RH  066%=      5-min Rain = 0
KRO1 142008Z 04002KT 06/00 A3028 RMK A01 T00590004  RH  068%=      5-min Rain = 0
KRO1 142009Z 03002KT 06/01 A3028 RMK A01 T00590007  RH  069%=      5-min Rain = 0
KRO1 142010Z 00000KT 06/00 A3028 RMK A01 T00580004  RH  068%=      5-min Rain = 0
KRO1 142011Z 00001KT 06/01 A3028 RMK A01 T00580009  RH  070%=      5-min Rain = 0
KRO1 142012Z 33000KT 06/01 A3028 RMK A01 T00610013  RH  071%=      5-min Rain = 0
KRO1 142013Z 21001KT 06/01 A3028 RMK A01 T00620009  RH  069%=      5-min Rain = 0
KRO1 142014Z 26000KT 07/01 A3028 RMK A01 T00650010  RH  068%=      5-min Rain = 0
KRO1 142015Z 11002KT 07/01 A3028 RMK A01 T00680012  RH  067%=      5-min Rain = 0
KRO1 142016Z 11001KT 07/01 A3028 RMK A01 T00700012  RH  067%=      5-min Rain = 0
KRO1 142017Z 07002KT 07/01 A3028 RMK A01 T00700011  RH  066%=      5-min Rain = 0
KRO1 142018Z 05001KT 07/01 A3028 RMK A01 T00690009  RH  066%=      5-min Rain = 0
KRO1 142019Z 19000KT 07/01 A3028 RMK A01 T00670009  RH  067%=      5-min Rain = 0
KRO1 142020Z 17002KT 07/01 A3028 RMK A01 T00660008  RH  066%=      5-min Rain = 0
KRO1 142021Z 20002KT 07/01 A3028 RMK A01 T00670006  RH  065%=      5-min Rain = 0
KRO1 142022Z 18002KT 07/01 A3028 RMK A01 T00670007  RH  065%=      5-min Rain = 0
KRO1 142023Z 10001KT 07/01 A3028 RMK A01 T00690011  RH  066%=      5-min Rain = 0
KRO1 142024Z 07003KT 07/01 A3028 RMK A01 T00720013  RH  066%=      5-min Rain = 0
KRO1 142025Z 07003KT 07/01 A3027 RMK A01 T00710013  RH  067%=      5-min Rain = 0
KRO1 142026Z 07004KT 07/02 A3027 RMK A01 T00700017  RH  069%=      5-min Rain = 0
KRO1 142027Z 06005KT 07/02 A3027 RMK A01 T00700015  RH  068%=      5-min Rain = 0
KRO1 142028Z 04003KT 07/01 A3027 RMK A01 T00680013  RH  068%=      5-min Rain = 0
KRO1 142029Z 05002KT 07/01 A3027 RMK A01 T00680013  RH  068%=      5-min Rain = 0
KRO1 142030Z 03001KT 07/01 A3027 RMK A01 T00680013  RH  068%=      5-min Rain = 0
KRO1 142031Z 08001KT 07/01 A3027 RMK A01 T00690011  RH  066%=      5-min Rain = 0
KRO1 142032Z 13000KT 07/01 A3027 RMK A01 T00690008  RH  065%=      5-min Rain = 0
KRO1 142033Z 13001KT 07/01 A3027 RMK A01 T00710012  RH  066%=      5-min Rain = 0
KRO1 142034Z 15001KT 07/01 A3027 RMK A01 T00720010  RH  065%=      5-min Rain = 0
KRO1 142035Z 06001KT 08/02 A3027 RMK A01 T00750017  RH  067%=      5-min Rain = 0
KRO1 142036Z 02002KT 08/02 A3027 RMK A01 T00770018  RH  066%=      5-min Rain = 0
KRO1 142037Z 04002KT 08/02 A3027 RMK A01 T00770021  RH  068%=      5-min Rain = 0
KRO1 142038Z 06001KT 08/02 A3027 RMK A01 T00770018  RH  066%=      5-min Rain = 0
KRO1 142039Z 02001KT 08/01 A3027 RMK A01 T00770014  RH  064%=      5-min Rain = 0
KRO1 142040Z 31001KT 07/01 A3027 RMK A01 T00740011  RH  064%=      5-min Rain = 0
KRO1 142041Z 34001KT 07/01 A3027 RMK A01 T00740014  RH  066%=      5-min Rain = 0
KRO1 142042Z 01003KT 07/02 A3027 RMK A01 T00740018  RH  067%=      5-min Rain = 0
KRO1 142043Z 04005KT 08/02 A3026 RMK A01 T00760023  RH  069%=      5-min Rain = 0
KRO1 142044Z 04004KT 08/02 A3026 RMK A01 T00750017  RH  066%=      5-min Rain = 0
KRO1 142045Z 03005KT 08/02 A3026 RMK A01 T00750021  RH  069%=      5-min Rain = 0
KRO1 142046Z 04004KT 08/02 A3026 RMK A01 T00750018  RH  067%=      5-min Rain = 0
KRO1 142047Z 06003KT 07/01 A3026 RMK A01 T00740014  RH  066%=      5-min Rain = 0
KRO1 142048Z 06002KT 07/01 A3026 RMK A01 T00740014  RH  066%=      5-min Rain = 0
KRO1 142049Z 07002KT 07/01 A3026 RMK A01 T00740013  RH  065%=      5-min Rain = 0
KRO1 142050Z 06003KT 08/02 A3026 RMK A01 T00750016  RH  066%=      5-min Rain = 0
KRO1 142051Z 05004KT 08/02 A3026 RMK A01 T00760016  RH  066%=      5-min Rain = 0
KRO1 142052Z 05003KT 08/01 A3026 RMK A01 T00760013  RH  065%=      5-min Rain = 0
KRO1 142053Z 07003KT 08/02 A3026 RMK A01 T00750016  RH  066%=      5-min Rain = 0
KRO1 142054Z 06005KT 08/02 A3026 RMK A01 T00760018  RH  067%=      5-min Rain = 0
KRO1 142055Z 06003KT 08/01 A3026 RMK A01 T00770013  RH  064%=      5-min Rain = 0
KRO1 142056Z 07002KT 08/02 A3025 RMK A01 T00760016  RH  066%=      5-min Rain = 0
KRO1 142057Z 05004KT 08/02 A3025 RMK A01 T00780021  RH  067%=      5-min Rain = 0
KRO1 142058Z 05005KT 08/02 A3025 RMK A01 T00790019  RH  066%=      5-min Rain = 0
KRO1 142059Z 05004KT 08/02 A3025 RMK A01 T00790016  RH  065%=      5-min Rain = 0
KRO1 142100Z 05005KT 08/02 A3025 RMK A01 T00790018  RH  066%=      5-min Rain = 0
KRO1 142101Z 04002KT 08/02 A3025 RMK A01 T00790018  RH  065%=      5-min Rain = 0
KRO1 142102Z 02002KT 08/02 A3025 RMK A01 T00800017  RH  064%=      5-min Rain = 0
KRO1 142103Z 35002KT 08/02 A3025 RMK A01 T00810019  RH  065%=      5-min Rain = 0
KRO1 142104Z 36003KT 08/02 A3025 RMK A01 T00810021  RH  066%=      5-min Rain = 0
KRO1 142105Z 00003KT 08/02 A3025 RMK A01 T00830023  RH  066%=      5-min Rain = 0
KRO1 142106Z 03002KT 08/02 A3025 RMK A01 T00840023  RH  065%=      5-min Rain = 0
KRO1 142107Z 01001KT 08/03 A3025 RMK A01 T00840026  RH  067%=      5-min Rain = 0
KRO1 142108Z 07001KT 09/03 A3025 RMK A01 T00850028  RH  067%=      5-min Rain = 0
KRO1 142109Z 05002KT 09/02 A3025 RMK A01 T00880024  RH  064%=      5-min Rain = 0
KRO1 142110Z 04002KT 09/02 A3025 RMK A01 T00870018  RH  062%=      5-min Rain = 0
KRO1 142111Z 02000KT 09/02 A3025 RMK A01 T00850016  RH  062%=      5-min Rain = 0
KRO1 142112Z 00002KT 08/02 A3025 RMK A01 T00840019  RH  064%=      5-min Rain = 0
KRO1 142113Z 02002KT 08/02 A3025 RMK A01 T00840018  RH  063%=      5-min Rain = 0
KRO1 142114Z 00002KT 08/02 A3025 RMK A01 T00840023  RH  066%=      5-min Rain = 0
KRO1 142115Z 00002KT 09/03 A3025 RMK A01 T00860025  RH  065%=      5-min Rain = 0
KRO1 142116Z 36002KT 09/02 A3025 RMK A01 T00870021  RH  063%=      5-min Rain = 0
KRO1 142117Z 35003KT 09/02 A3025 RMK A01 T00870021  RH  063%=      5-min Rain = 0
KRO1 142118Z 35002KT 09/02 A3025 RMK A01 T00860022  RH  064%=      5-min Rain = 0
KRO1 142119Z 33001KT 09/02 A3024 RMK A01 T00870022  RH  064%=      5-min Rain = 0
KRO1 142120Z 35001KT 09/02 A3024 RMK A01 T00880021  RH  063%=      5-min Rain = 0
KRO1 142121Z 02002KT 09/02 A3024 RMK A01 T00890024  RH  064%=      5-min Rain = 0
KRO1 142122Z 01003KT 09/03 A3024 RMK A01 T00900025  RH  064%=      5-min Rain = 0
KRO1 142123Z 36002KT 09/02 A3024 RMK A01 T00900023  RH  063%=      5-min Rain = 0
KRO1 142124Z 32002KT 09/02 A3024 RMK A01 T00900022  RH  063%=      5-min Rain = 0
KRO1 142125Z 29002KT 09/02 A3024 RMK A01 T00910024  RH  063%=      5-min Rain = 0
KRO1 142126Z 32001KT 09/03 A3024 RMK A01 T00920025  RH  063%=      5-min Rain = 0
KRO1 142127Z 32000KT 09/03 A3024 RMK A01 T00940027  RH  063%=      5-min Rain = 0
KRO1 142128Z 28001KT 10/03 A3024 RMK A01 T00950031  RH  064%=      5-min Rain = 0
KRO1 142129Z 22002KT 10/03 A3024 RMK A01 T00990032  RH  063%=      5-min Rain = 0
KRO1 142130Z 11003KT 10/03 A3024 RMK A01 T01020026  RH  059%=      5-min Rain = 0
KRO1 142131Z 15005KT 10/03 A3024 RMK A01 T01040027  RH  059%=      5-min Rain = 0
KRO1 142132Z 16005KT 11/03 A3024 RMK A01 T01050030  RH  060%=      5-min Rain = 0
KRO1 142133Z 16007KT 11/02 A3024 RMK A01 T01080022  RH  055%=      5-min Rain = 0
KRO1 142134Z 16010KT 11/02 A3023 RMK A01 T01090023  RH  055%=      5-min Rain = 0
KRO1 142135Z 16009KT 11/02 A3023 RMK A01 T01100021  RH  054%=      5-min Rain = 0
KRO1 142136Z 16008KT 11/02 A3023 RMK A01 T01100018  RH  053%=      5-min Rain = 0
KRO1 142137Z 15007KT 11/02 A3023 RMK A01 T01090015  RH  052%=      5-min Rain = 0
KRO1 142138Z 15008KT 11/02 A3023 RMK A01 T01090021  RH  054%=      5-min Rain = 0
KRO1 142139Z 15012KT 11/03 A3023 RMK A01 T01120026  RH  056%=      5-min Rain = 0
KRO1 142140Z 16013KT 11/03 A3023 RMK A01 T01140027  RH  055%=      5-min Rain = 0
KRO1 142141Z 17011KT 11/02 A3023 RMK A01 T01140024  RH  054%=      5-min Rain = 0
KRO1 142142Z 16011KT 11/02 A3023 RMK A01 T01130021  RH  053%=      5-min Rain = 0
KRO1 142143Z 15011KT 11/02 A3023 RMK A01 T01120024  RH  055%=      5-min Rain = 0
KRO1 142144Z 15011KT 11/02 A3023 RMK A01 T01130021  RH  053%=      5-min Rain = 0
KRO1 142145Z 15013KT 11/02 A3023 RMK A01 T01130024  RH  054%=      5-min Rain = 0
KRO1 142146Z 15013KT 11/02 A3023 RMK A01 T01130024  RH  054%=      5-min Rain = 0
KRO1 142147Z 15014KT 11/03 A3023 RMK A01 T01140025  RH  055%=      5-min Rain = 0
KRO1 142148Z 15013KT 11/03 A3023 RMK A01 T01140026  RH  055%=      5-min Rain = 0
KRO1 142149Z 16012KT 11/03 A3023 RMK A01 T01140026  RH  055%=      5-min Rain = 0
KRO1 142150Z 17012KT 11/03 A3023 RMK A01 T01140027  RH  055%=      5-min Rain = 0
KRO1 142151Z 16011KT 11/03 A3023 RMK A01 T01140028  RH  055%=      5-min Rain = 0
KRO1 142152Z 17010KT 11/03 A3023 RMK A01 T01130025  RH  054%=      5-min Rain = 0
KRO1 142153Z 18010KT 11/02 A3023 RMK A01 T01140024  RH  054%=      5-min Rain = 0
KRO1 142154Z 18008KT 11/02 A3022 RMK A01 T01140019  RH  052%=      5-min Rain = 0
KRO1 142155Z 16009KT 11/02 A3022 RMK A01 T01140021  RH  053%=      5-min Rain = 0
KRO1 142156Z 15009KT 11/02 A3022 RMK A01 T01130023  RH  054%=      5-min Rain = 0
KRO1 142157Z 15010KT 11/02 A3022 RMK A01 T01140024  RH  054%=      5-min Rain = 0
KRO1 142158Z 15009KT 11/03 A3022 RMK A01 T01140025  RH  054%=      5-min Rain = 0
KRO1 142159Z 15009KT 11/02 A3022 RMK A01 T01140023  RH  054%=      5-min Rain = 0
KRO1 142200Z 16008KT 11/02 A3022 RMK A01 T01140020  RH  052%=      5-min Rain = 0
KRO1 142201Z 15008KT 11/02 A3022 RMK A01 T01140022  RH  053%=      5-min Rain = 0
KRO1 142202Z 16011KT 12/03 A3022 RMK A01 T01160026  RH  054%=      5-min Rain = 0
KRO1 142203Z 18010KT 12/02 A3022 RMK A01 T01160021  RH  052%=      5-min Rain = 0
KRO1 142204Z 17010KT 12/03 A3022 RMK A01 T01160028  RH  055%=      5-min Rain = 0
KRO1 142205Z 17008KT 12/02 A3022 RMK A01 T01160022  RH  052%=      5-min Rain = 0
KRO1 142206Z 17008KT 12/03 A3022 RMK A01 T01160027  RH  054%=      5-min Rain = 0
KRO1 142207Z 17008KT 12/02 A3022 RMK A01 T01170022  RH  052%=      5-min Rain = 0
KRO1 142208Z 17007KT 12/02 A3022 RMK A01 T01160019  RH  051%=      5-min Rain = 0
KRO1 142209Z 16009KT 12/02 A3022 RMK A01 T01150020  RH  052%=      5-min Rain = 0
KRO1 142210Z 16010KT 11/02 A3022 RMK A01 T01140021  RH  053%=      5-min Rain = 0
KRO1 142211Z 16010KT 11/02 A3022 RMK A01 T01140020  RH  052%=      5-min Rain = 0
KRO1 142212Z 16008KT 11/02 A3022 RMK A01 T01140021  RH  053%=      5-min Rain = 0
KRO1 142213Z 16007KT 12/02 A3022 RMK A01 T01150023  RH  053%=      5-min Rain = 0
KRO1 142214Z 17010KT 12/03 A3022 RMK A01 T01170028  RH  054%=      5-min Rain = 0
KRO1 142215Z 16012KT 12/03 A3022 RMK A01 T01180030  RH  055%=      5-min Rain = 0
KRO1 142216Z 15012KT 12/03 A3022 RMK A01 T01180026  RH  053%=      5-min Rain = 0
KRO1 142217Z 15014KT 12/03 A3022 RMK A01 T01170026  RH  054%=      5-min Rain = 0
KRO1 142218Z 15013KT 12/02 A3022 RMK A01 T01160023  RH  053%=      5-min Rain = 0
KRO1 142219Z 15010KT 12/02 A3022 RMK A01 T01150023  RH  053%=      5-min Rain = 0
KRO1 142220Z 16008KT 12/03 A3022 RMK A01 T01160025  RH  054%=      5-min Rain = 0
KRO1 142221Z 16010KT 12/02 A3022 RMK A01 T01160024  RH  053%=      5-min Rain = 0
KRO1 142222Z 15013KT 12/03 A3022 RMK A01 T01160028  RH  055%=      5-min Rain = 0
KRO1 142223Z 16013KT 12/03 A3022 RMK A01 T01160026  RH  054%=      5-min Rain = 0
KRO1 142224Z 15012KT 12/03 A3022 RMK A01 T01160028  RH  055%=      5-min Rain = 0
KRO1 142225Z 16012KT 12/03 A3022 RMK A01 T01160030  RH  056%=      5-min Rain = 0
KRO1 142226Z 16013KT 12/03 A3022 RMK A01 T01160028  RH  055%=      5-min Rain = 0
KRO1 142227Z 15014KT 11/03 A3022 RMK A01 T01140026  RH  055%=      5-min Rain = 0
KRO1 142228Z 16014KT 11/03 A3022 RMK A01 T01130029  RH  056%=      5-min Rain = 0
KRO1 142229Z 16012KT 11/03 A3022 RMK A01 T01130025  RH  055%=      5-min Rain = 0
KRO1 142230Z 16012KT 11/03 A3022 RMK A01 T01140028  RH  056%=      5-min Rain = 0
KRO1 142231Z 16012KT 11/03 A3022 RMK A01 T01140027  RH  055%=      5-min Rain = 0
KRO1 142232Z 17013KT 11/03 A3022 RMK A01 T01140028  RH  055%=      5-min Rain = 0
KRO1 142233Z 16013KT 11/03 A3022 RMK A01 T01140028  RH  055%=      5-min Rain = 0
KRO1 142234Z 16012KT 11/02 A3022 RMK A01 T01140023  RH  053%=      5-min Rain = 0
KRO1 142235Z 15012KT 11/02 A3022 RMK A01 T01130023  RH  054%=      5-min Rain = 0
KRO1 142236Z 16013KT 11/03 A3022 RMK A01 T01140028  RH  055%=      5-min Rain = 0
KRO1 142237Z 16014KT 12/03 A3022 RMK A01 T01150028  RH  055%=      5-min Rain = 0
KRO1 142238Z 16012KT 12/02 A3022 RMK A01 T01150024  RH  053%=      5-min Rain = 0
KRO1 142239Z 16011KT 12/03 A3021 RMK A01 T01150026  RH  054%=      5-min Rain = 0
KRO1 142240Z 16013KT 12/03 A3021 RMK A01 T01160026  RH  054%=      5-min Rain = 0
KRO1 142241Z 15011KT 12/03 A3021 RMK A01 T01160030  RH  055%=      5-min Rain = 0
KRO1 142242Z 15011KT 12/03 A3021 RMK A01 T01170027  RH  054%=      5-min Rain = 0
KRO1 142243Z 16013KT 12/03 A3021 RMK A01 T01170029  RH  055%=      5-min Rain = 0
KRO1 142244Z 17011KT 12/03 A3021 RMK A01 T01160027  RH  054%=      5-min Rain = 0
KRO1 142245Z 18011KT 12/03 A3021 RMK A01 T01160028  RH  055%=      5-min Rain = 0
KRO1 142246Z 16011KT 12/03 A3021 RMK A01 T01160029  RH  055%=      5-min Rain = 0
KRO1 142247Z 15013KT 12/03 A3021 RMK A01 T01160030  RH  055%=      5-min Rain = 0
KRO1 142248Z 15011KT 12/03 A3021 RMK A01 T01160029  RH  055%=      5-min Rain = 0
KRO1 142249Z 15012KT 12/03 A3021 RMK A01 T01160030  RH  055%=      5-min Rain = 0
KRO1 142250Z 15011KT 12/02 A3021 RMK A01 T01160023  RH  053%=      5-min Rain = 0
KRO1 142251Z 16009KT 12/02 A3021 RMK A01 T01150022  RH  053%=      5-min Rain = 0
KRO1 142252Z 16010KT 12/02 A3021 RMK A01 T01150022  RH  053%=      5-min Rain = 0
KRO1 142253Z 16012KT 12/02 A3021 RMK A01 T01150022  RH  053%=      5-min Rain = 0
KRO1 142254Z 15014KT 12/02 A3021 RMK A01 T01150023  RH  053%=      5-min Rain = 0
KRO1 142255Z 16013KT 12/03 A3021 RMK A01 T01150026  RH  055%=      5-min Rain = 0
KRO1 142256Z 17011KT 11/03 A3021 RMK A01 T01140028  RH  055%=      5-min Rain = 0
KRO1 142257Z 15012KT 11/03 A3021 RMK A01 T01140030  RH  056%=      5-min Rain = 0
KRO1 142258Z 15012KT 11/03 A3021 RMK A01 T01140030  RH  056%=      5-min Rain = 0
KRO1 142259Z 15010KT 12/03 A3021 RMK A01 T01150025  RH  054%=      5-min Rain = 0
KRO1 142300Z 15013KT 12/03 A3021 RMK A01 T01150028  RH  055%=      5-min Rain = 0
KRO1 142301Z 15014KT 12/03 A3021 RMK A01 T01150029  RH  056%=      5-min Rain = 0
KRO1 142302Z 16013KT 12/03 A3021 RMK A01 T01150029  RH  056%=      5-min Rain = 0
KRO1 142303Z 15013KT 12/03 A3021 RMK A01 T01150028  RH  055%=      5-min Rain = 0
KRO1 142304Z 15012KT 12/02 A3021 RMK A01 T01150024  RH  054%=      5-min Rain = 0
KRO1 142305Z 16012KT 11/03 A3021 RMK A01 T01140027  RH  055%=      5-min Rain = 0
KRO1 142306Z 16012KT 11/03 A3021 RMK A01 T01140030  RH  056%=      5-min Rain = 0
KRO1 142307Z 16012KT 11/03 A3021 RMK A01 T01140025  RH  054%=      5-min Rain = 0
KRO1 142308Z 16012KT 11/03 A3021 RMK A01 T01140027  RH  055%=      5-min Rain = 0
KRO1 142309Z 16015KT 11/03 A3021 RMK A01 T01140028  RH  055%=      5-min Rain = 0
KRO1 142310Z 16014KT 11/02 A3021 RMK A01 T01130024  RH  054%=      5-min Rain = 0
KRO1 142311Z 16016KT 11/02 A3021 RMK A01 T01120022  RH  054%=      5-min Rain = 0
KRO1 142312Z 17013KT 11/02 A3021 RMK A01 T01120022  RH  054%=      5-min Rain = 0
KRO1 142313Z 17011KT 11/03 A3021 RMK A01 T01110028  RH  056%=      5-min Rain = 0
KRO1 142314Z 16013KT 11/03 A3021 RMK A01 T01110030  RH  057%=      5-min Rain = 0
KRO1 142315Z 16012KT 11/03 A3021 RMK A01 T01110026  RH  056%=      5-min Rain = 0
KRO1 142316Z 15014KT 11/03 A3021 RMK A01 T01110027  RH  056%=      5-min Rain = 0
KRO1 142317Z 15012KT 11/02 A3021 RMK A01 T01110023  RH  055%=      5-min Rain = 0
KRO1 142318Z 15011KT 11/03 A302 RMK A01 T01110026  RH  056%=      5-min Rain = 0
KRO1 142319Z 16011KT 11/03 A302 RMK A01 T01110025  RH  055%=      5-min Rain = 0
KRO1 142320Z 16011KT 11/03 A302 RMK A01 T01110025  RH  055%=      5-min Rain = 0
KRO1 142321Z 16011KT 11/03 A302 RMK A01 T01110025  RH  055%=      5-min Rain = 0
KRO1 142322Z 16011KT 11/03 A302 RMK A01 T01110025  RH  056%=      5-min Rain = 0
KRO1 142323Z 15013KT 11/03 A302 RMK A01 T01110026  RH  056%=      5-min Rain = 0
KRO1 142324Z 16013KT 11/02 A302 RMK A01 T01100023  RH  055%=      5-min Rain = 0
KRO1 142325Z 16011KT 11/02 A302 RMK A01 T01100022  RH  055%=      5-min Rain = 0
KRO1 142326Z 16009KT 11/03 A302 RMK A01 T01100027  RH  056%=      5-min Rain = 0
KRO1 142327Z 16009KT 11/03 A302 RMK A01 T01100031  RH  058%=      5-min Rain = 0
KRO1 142328Z 15010KT 11/03 A302 RMK A01 T01100027  RH  057%=      5-min Rain = 0
KRO1 142329Z 16009KT 11/03 A302 RMK A01 T01100027  RH  057%=      5-min Rain = 0
KRO1 142330Z 16011KT 11/03 A302 RMK A01 T01100026  RH  056%=      5-min Rain = 0
KRO1 142331Z 15012KT 11/03 A302 RMK A01 T01100025  RH  056%=      5-min Rain = 0
KRO1 142332Z 16013KT 11/03 A302 RMK A01 T01090025  RH  056%=      5-min Rain = 0
KRO1 142333Z 16011KT 11/03 A302 RMK A01 T01090025  RH  056%=      5-min Rain = 0
KRO1 142334Z 16012KT 11/03 A302 RMK A01 T01090029  RH  058%=      5-min Rain = 0
KRO1 142335Z 16012KT 11/03 A302 RMK A01 T01090027  RH  057%=      5-min Rain = 0
KRO1 142336Z 16011KT 11/03 A302 RMK A01 T01080026  RH  057%=      5-min Rain = 0
KRO1 142337Z 16011KT 11/03 A302 RMK A01 T01080027  RH  057%=      5-min Rain = 0
KRO1 142338Z 16011KT 11/03 A302 RMK A01 T01080029  RH  058%=      5-min Rain = 0
KRO1 142339Z 16013KT 11/03 A302 RMK A01 T01070025  RH  057%=      5-min Rain = 0
KRO1 142340Z 16012KT 11/02 A302 RMK A01 T01070023  RH  056%=      5-min Rain = 0
KRO1 142341Z 16011KT 11/02 A302 RMK A01 T01070024  RH  056%=      5-min Rain = 0
KRO1 142342Z 16009KT 11/03 A302 RMK A01 T01070027  RH  058%=      5-min Rain = 0
KRO1 142343Z 15011KT 11/03 A302 RMK A01 T01070028  RH  058%=      5-min Rain = 0
KRO1 142344Z 15011KT 11/03 A302 RMK A01 T01070027  RH  058%=      5-min Rain = 0
KRO1 142345Z 15011KT 11/03 A302 RMK A01 T01060025  RH  057%=      5-min Rain = 0
KRO1 142346Z 15011KT 11/03 A302 RMK A01 T01070025  RH  057%=      5-min Rain = 0
KRO1 142347Z 15010KT 11/03 A302 RMK A01 T01060028  RH  059%=      5-min Rain = 0
KRO1 142348Z 14010KT 11/03 A302 RMK A01 T01060028  RH  059%=      5-min Rain = 0
KRO1 142349Z 15010KT 11/03 A302 RMK A01 T01050030  RH  060%=      5-min Rain = 0
KRO1 142350Z 14010KT 10/03 A302 RMK A01 T01040031  RH  060%=      5-min Rain = 0
KRO1 142351Z 14009KT 10/03 A302 RMK A01 T01040031  RH  061%=      5-min Rain = 0
KRO1 142352Z 14011KT 10/03 A302 RMK A01 T01030032  RH  061%=      5-min Rain = 0
KRO1 142353Z 14010KT 10/03 A302 RMK A01 T01030030  RH  061%=      5-min Rain = 0
KRO1 142354Z 14010KT 10/03 A302 RMK A01 T01020033  RH  063%=      5-min Rain = 0
KRO1 142355Z 14010KT 10/03 A302 RMK A01 T01010033  RH  063%=      5-min Rain = 0
KRO1 142356Z 14009KT 10/03 A302 RMK A01 T01000033  RH  063%=      5-min Rain = 0
KRO1 142357Z 14010KT 10/03 A302 RMK A01 T00990034  RH  064%=      5-min Rain = 0
KRO1 142358Z 14011KT 10/03 A302 RMK A01 T00980033  RH  064%=      5-min Rain = 0
KRO1 142359Z 14010KT 10/03 A302 RMK A01 T00980032  RH  063%=      5-min Rain = 0
KRO1 150000Z 15012KT 10/03 A302 RMK A01 T00970027  RH  062%=      5-min Rain = 0
KRO1 150001Z 14010KT 10/03 A302 RMK A01 T00980026  RH  061%=      5-min Rain = 0
KRO1 150002Z 15011KT 10/03 A302 RMK A01 T00980029  RH  062%=      5-min Rain = 0
KRO1 150003Z 15011KT 10/03 A302 RMK A01 T00980028  RH  062%=      5-min Rain = 0
KRO1 150004Z 15011KT 10/03 A302 RMK A01 T00970028  RH  062%=      5-min Rain = 0
KRO1 150005Z 15011KT 10/03 A302 RMK A01 T00970027  RH  062%=      5-min Rain = 0
KRO1 150006Z 15010KT 10/03 A302 RMK A01 T00960028  RH  062%=      5-min Rain = 0
KRO1 150007Z 15011KT 10/03 A302 RMK A01 T00950029  RH  063%=      5-min Rain = 0
KRO1 150008Z 15010KT 10/03 A302 RMK A01 T00950028  RH  063%=      5-min Rain = 0
KRO1 150009Z 15010KT 09/03 A302 RMK A01 T00940028  RH  063%=      5-min Rain = 0
KRO1 150010Z 15011KT 09/03 A302 RMK A01 T00940028  RH  064%=      5-min Rain = 0
KRO1 150011Z 15010KT 09/03 A3019 RMK A01 T00930028  RH  064%=      5-min Rain = 0
KRO1 150012Z 15011KT 09/03 A3019 RMK A01 T00930028  RH  064%=      5-min Rain = 0
KRO1 150013Z 15012KT 09/03 A3019 RMK A01 T00930026  RH  063%=      5-min Rain = 0
KRO1 150014Z 14011KT 09/02 A3019 RMK A01 T00930024  RH  062%=      5-min Rain = 0
KRO1 150015Z 14010KT 09/03 A3019 RMK A01 T00930027  RH  063%=      5-min Rain = 0
KRO1 150016Z 14010KT 09/03 A3019 RMK A01 T00920028  RH  064%=      5-min Rain = 0
KRO1 150017Z 14011KT 09/03 A3019 RMK A01 T00910028  RH  065%=      5-min Rain = 0
KRO1 150018Z 14011KT 09/03 A3019 RMK A01 T00900027  RH  065%=      5-min Rain = 0
KRO1 150019Z 14011KT 09/03 A3019 RMK A01 T00900029  RH  066%=      5-min Rain = 0
KRO1 150020Z 13011KT 09/03 A3019 RMK A01 T00890029  RH  066%=      5-min Rain = 0
KRO1 150021Z 13010KT 09/03 A3019 RMK A01 T00880030  RH  067%=      5-min Rain = 0
KRO1 150022Z 13010KT 09/03 A3019 RMK A01 T00870031  RH  068%=      5-min Rain = 0
KRO1 150023Z 13010KT 09/03 A3019 RMK A01 T00860030  RH  068%=      5-min Rain = 0
KRO1 150024Z 14009KT 09/03 A3019 RMK A01 T00850029  RH  068%=      5-min Rain = 0
KRO1 150025Z 14010KT 09/03 A3019 RMK A01 T00850030  RH  068%=      5-min Rain = 0
KRO1 150026Z 14010KT 09/03 A3019 RMK A01 T00850029  RH  068%=      5-min Rain = 0
KRO1 150027Z 14010KT 08/03 A3019 RMK A01 T00840029  RH  068%=      5-min Rain = 0
KRO1 150028Z 14010KT 08/03 A3019 RMK A01 T00830029  RH  069%=      5-min Rain = 0
KRO1 150029Z 14010KT 08/03 A3019 RMK A01 T00820028  RH  069%=      5-min Rain = 0
KRO1 150030Z 14010KT 08/03 A3019 RMK A01 T00820029  RH  069%=      5-min Rain = 0
KRO1 150031Z 14010KT 08/03 A3019 RMK A01 T00810028  RH  069%=      5-min Rain = 0
KRO1 150032Z 14010KT 08/03 A3019 RMK A01 T00810028  RH  070%=      5-min Rain = 0
KRO1 150033Z 14010KT 08/03 A3019 RMK A01 T00800027  RH  069%=      5-min Rain = 0
KRO1 150034Z 14011KT 08/03 A3019 RMK A01 T00800026  RH  069%=      5-min Rain = 0
KRO1 150035Z 14010KT 08/03 A3019 RMK A01 T00800025  RH  068%=      5-min Rain = 0
KRO1 150036Z 14010KT 08/03 A3019 RMK A01 T00800025  RH  068%=      5-min Rain = 0
KRO1 150037Z 14011KT 08/03 A3019 RMK A01 T00800025  RH  068%=      5-min Rain = 0
KRO1 150038Z 14010KT 08/02 A3019 RMK A01 T00800024  RH  068%=      5-min Rain = 0
KRO1 150039Z 14010KT 08/03 A3019 RMK A01 T00800025  RH  068%=      5-min Rain = 0
KRO1 150040Z 14010KT 08/03 A3019 RMK A01 T00790025  RH  069%=      5-min Rain = 0
KRO1 150041Z 14010KT 08/03 A3019 RMK A01 T00780025  RH  069%=      5-min Rain = 0
KRO1 150042Z 14009KT 08/03 A3019 RMK A01 T00780025  RH  069%=      5-min Rain = 0
KRO1 150043Z 14010KT 08/03 A3019 RMK A01 T00780025  RH  069%=      5-min Rain = 0
KRO1 150044Z 14009KT 08/03 A3019 RMK A01 T00770025  RH  070%=      5-min Rain = 0
KRO1 150045Z 14009KT 08/03 A3019 RMK A01 T00760025  RH  070%=      5-min Rain = 0
KRO1 150046Z 14010KT 08/03 A3019 RMK A01 T00760025  RH  070%=      5-min Rain = 0
KRO1 150047Z 14009KT 08/03 A3019 RMK A01 T00750025  RH  070%=      5-min Rain = 0
KRO1 150048Z 14010KT 08/03 A3019 RMK A01 T00760025  RH  070%=      5-min Rain = 0
KRO1 150049Z 14010KT 08/02 A3019 RMK A01 T00750022  RH  069%=      5-min Rain = 0
KRO1 150050Z 14010KT 08/02 A3019 RMK A01 T00760022  RH  069%=      5-min Rain = 0
KRO1 150051Z 14010KT 08/02 A3019 RMK A01 T00770022  RH  068%=      5-min Rain = 0
KRO1 150052Z 14010KT 08/02 A3019 RMK A01 T00770023  RH  069%=      5-min Rain = 0
KRO1 150053Z 14010KT 08/02 A3019 RMK A01 T00760023  RH  069%=      5-min Rain = 0
KRO1 150054Z 14010KT 08/02 A3019 RMK A01 T00760022  RH  069%=      5-min Rain = 0
KRO1 150055Z 14010KT 08/02 A3019 RMK A01 T00760022  RH  069%=      5-min Rain = 0
KRO1 150056Z 14010KT 08/02 A3019 RMK A01 T00750022  RH  069%=      5-min Rain = 0
KRO1 150057Z 14010KT 08/02 A3019 RMK A01 T00750022  RH  069%=      5-min Rain = 0
KRO1 150058Z 14009KT 08/02 A3019 RMK A01 T00750022  RH  069%=      5-min Rain = 0
KRO1 150059Z 14010KT 08/02 A3019 RMK A01 T00750022  RH  069%=      5-min Rain = 0
KRO1 150100Z 14010KT 07/02 A3019 RMK A01 T00740023  RH  070%=      5-min Rain = 0
KRO1 150101Z 14009KT 07/02 A3019 RMK A01 T00730023  RH  070%=      5-min Rain = 0
KRO1 150102Z 14009KT 07/02 A3019 RMK A01 T00720023  RH  071%=      5-min Rain = 0
KRO1 150103Z 14009KT 07/02 A3019 RMK A01 T00710023  RH  071%=      5-min Rain = 0
KRO1 150104Z 14009KT 07/02 A3019 RMK A01 T00710024  RH  072%=      5-min Rain = 0
KRO1 150105Z 14009KT 07/02 A3019 RMK A01 T00700023  RH  072%=      5-min Rain = 0
KRO1 150106Z 14009KT 07/02 A3019 RMK A01 T00690023  RH  072%=      5-min Rain = 0
KRO1 150107Z 14008KT 07/02 A3019 RMK A01 T00690023  RH  073%=      5-min Rain = 0
KRO1 150108Z 14008KT 07/02 A3019 RMK A01 T00680024  RH  073%=      5-min Rain = 0
KRO1 150109Z 14008KT 07/02 A3019 RMK A01 T00680024  RH  073%=      5-min Rain = 0
KRO1 150110Z 14008KT 07/02 A3019 RMK A01 T00670024  RH  074%=      5-min Rain = 0
KRO1 150111Z 14008KT 07/02 A3019 RMK A01 T00670024  RH  074%=      5-min Rain = 0
KRO1 150112Z 14008KT 07/02 A3019 RMK A01 T00660024  RH  075%=      5-min Rain = 0
KRO1 150113Z 14008KT 07/02 A3019 RMK A01 T00660024  RH  075%=      5-min Rain = 0
KRO1 150114Z 14008KT 07/02 A3019 RMK A01 T00650024  RH  075%=      5-min Rain = 0
KRO1 150115Z 14007KT 07/02 A3019 RMK A01 T00650024  RH  075%=      5-min Rain = 0
KRO1 150116Z 14007KT 07/02 A3019 RMK A01 T00650024  RH  075%=      5-min Rain = 0
KRO1 150117Z 14007KT 07/02 A3019 RMK A01 T00650024  RH  075%=      5-min Rain = 0
KRO1 150118Z 14007KT 06/02 A3019 RMK A01 T00640024  RH  075%=      5-min Rain = 0
KRO1 150119Z 14007KT 06/02 A3019 RMK A01 T00640023  RH  075%=      5-min Rain = 0
KRO1 150120Z 13007KT 06/02 A3019 RMK A01 T00640024  RH  076%=      5-min Rain = 0
KRO1 150121Z 14007KT 06/02 A3019 RMK A01 T00630024  RH  076%=      5-min Rain = 0
KRO1 150122Z 14007KT 06/02 A3019 RMK A01 T00630024  RH  076%=      5-min Rain = 0
KRO1 150123Z 14007KT 06/02 A3019 RMK A01 T00630024  RH  076%=      5-min Rain = 0
KRO1 150124Z 14007KT 06/02 A3019 RMK A01 T00630024  RH  076%=      5-min Rain = 0
KRO1 150125Z 14007KT 06/02 A3019 RMK A01 T00620024  RH  077%=      5-min Rain = 0
KRO1 150126Z 14007KT 06/02 A302 RMK A01 T00620024  RH  077%=      5-min Rain = 0
KRO1 150127Z 14007KT 06/02 A302 RMK A01 T00610024  RH  077%=      5-min Rain = 0
KRO1 150128Z 14007KT 06/02 A302 RMK A01 T00610024  RH  077%=      5-min Rain = 0
KRO1 150129Z 14007KT 06/02 A302 RMK A01 T00600024  RH  077%=      5-min Rain = 0
KRO1 150130Z 14007KT 06/02 A302 RMK A01 T00600024  RH  078%=      5-min Rain = 0
KRO1 150131Z 14007KT 06/02 A302 RMK A01 T00600024  RH  078%=      5-min Rain = 0
KRO1 150132Z 14007KT 06/02 A302 RMK A01 T00600024  RH  078%=      5-min Rain = 0
KRO1 150133Z 14007KT 06/02 A302 RMK A01 T00590024  RH  078%=      5-min Rain = 0
KRO1 150134Z 14008KT 06/02 A302 RMK A01 T00590024  RH  078%=      5-min Rain = 0
KRO1 150135Z 14008KT 06/02 A302 RMK A01 T00580024  RH  078%=      5-min Rain = 0
KRO1 150136Z 14008KT 06/02 A302 RMK A01 T00580024  RH  079%=      5-min Rain = 0
KRO1 150137Z 14008KT 06/02 A302 RMK A01 T00580024  RH  079%=      5-min Rain = 0
KRO1 150138Z 14008KT 06/02 A302 RMK A01 T00580024  RH  079%=      5-min Rain = 0
KRO1 150139Z 14008KT 06/02 A302 RMK A01 T00580024  RH  079%=      5-min Rain = 0
KRO1 150140Z 14008KT 06/02 A302 RMK A01 T00580024  RH  079%=      5-min Rain = 0
KRO1 150141Z 14008KT 06/02 A302 RMK A01 T00580024  RH  079%=      5-min Rain = 0
KRO1 150142Z 15008KT 06/02 A302 RMK A01 T00580024  RH  079%=      5-min Rain = 0
KRO1 150143Z 15008KT 06/02 A302 RMK A01 T00570023  RH  078%=      5-min Rain = 0
KRO1 150144Z 15008KT 06/02 A302 RMK A01 T00580023  RH  078%=      5-min Rain = 0
KRO1 150145Z 15008KT 06/02 A302 RMK A01 T00580023  RH  078%=      5-min Rain = 0
KRO1 150146Z 15008KT 06/02 A302 RMK A01 T00580022  RH  078%=      5-min Rain = 0
KRO1 150147Z 15008KT 06/02 A302 RMK A01 T00570022  RH  078%=      5-min Rain = 0
KRO1 150148Z 15008KT 06/02 A302 RMK A01 T00570021  RH  078%=      5-min Rain = 0
KRO1 150149Z 15008KT 06/02 A302 RMK A01 T00570021  RH  077%=      5-min Rain = 0
KRO1 150150Z 15008KT 06/02 A302 RMK A01 T00580021  RH  077%=      5-min Rain = 0
KRO1 150151Z 15008KT 06/02 A302 RMK A01 T00580021  RH  077%=      5-min Rain = 0
KRO1 150152Z 15008KT 06/02 A302 RMK A01 T00580020  RH  077%=      5-min Rain = 0
KRO1 150153Z 15008KT 06/02 A302 RMK A01 T00570020  RH  077%=      5-min Rain = 0
KRO1 150154Z 15008KT 06/02 A302 RMK A01 T00570020  RH  077%=      5-min Rain = 0
KRO1 150155Z 15008KT 06/02 A302 RMK A01 T00580020  RH  077%=      5-min Rain = 0
KRO1 150156Z 15008KT 06/02 A302 RMK A01 T00570020  RH  077%=      5-min Rain = 0
KRO1 150157Z 15008KT 06/02 A302 RMK A01 T00560020  RH  077%=      5-min Rain = 0
KRO1 150158Z 15007KT 06/02 A302 RMK A01 T00560020  RH  078%=      5-min Rain = 0
KRO1 150159Z 15007KT 06/02 A302 RMK A01 T00560020  RH  078%=      5-min Rain = 0
KRO1 150200Z 15007KT 06/02 A302 RMK A01 T00560020  RH  078%=      5-min Rain = 0
KRO1 150201Z 16007KT 06/02 A302 RMK A01 T00550020  RH  078%=      5-min Rain = 0
KRO1 150202Z 16007KT 06/02 A302 RMK A01 T00550020  RH  078%=      5-min Rain = 0
KRO1 150203Z 16007KT 06/02 A302 RMK A01 T00550021  RH  078%=      5-min Rain = 0
KRO1 150204Z 16006KT 05/02 A302 RMK A01 T00540020  RH  079%=      5-min Rain = 0
KRO1 150205Z 16005KT 05/02 A302 RMK A01 T00530021  RH  080%=      5-min Rain = 0
KRO1 150206Z 17005KT 05/02 A302 RMK A01 T00510020  RH  080%=      5-min Rain = 0
KRO1 150207Z 16005KT 05/02 A302 RMK A01 T00500020  RH  081%=      5-min Rain = 0
KRO1 150208Z 17005KT 05/02 A302 RMK A01 T00490020  RH  081%=      5-min Rain = 0
KRO1 150209Z 16005KT 05/02 A302 RMK A01 T00490020  RH  082%=      5-min Rain = 0
KRO1 150210Z 16006KT 05/02 A302 RMK A01 T00490020  RH  082%=      5-min Rain = 0
KRO1 150211Z 16006KT 05/02 A302 RMK A01 T00480020  RH  082%=      5-min Rain = 0
KRO1 150212Z 16006KT 05/02 A302 RMK A01 T00490020  RH  082%=      5-min Rain = 0
KRO1 150213Z 15006KT 05/02 A302 RMK A01 T00490019  RH  081%=      5-min Rain = 0
KRO1 150214Z 15006KT 05/02 A302 RMK A01 T00500019  RH  081%=      5-min Rain = 0
KRO1 150215Z 15006KT 05/02 A302 RMK A01 T00500019  RH  080%=      5-min Rain = 0
KRO1 150216Z 15005KT 05/02 A302 RMK A01 T00500019  RH  080%=      5-min Rain = 0
KRO1 150217Z 15006KT 05/02 A302 RMK A01 T00500019  RH  080%=      5-min Rain = 0
KRO1 150218Z 15006KT 05/02 A302 RMK A01 T00490019  RH  081%=      5-min Rain = 0
KRO1 150219Z 15006KT 05/02 A302 RMK A01 T00490018  RH  081%=      5-min Rain = 0
KRO1 150220Z 16005KT 05/02 A302 RMK A01 T00480018  RH  081%=      5-min Rain = 0
KRO1 150221Z 15006KT 05/02 A302 RMK A01 T00490019  RH  081%=      5-min Rain = 0
KRO1 150222Z 16006KT 05/02 A302 RMK A01 T00480018  RH  081%=      5-min Rain = 0
KRO1 150223Z 16006KT 05/02 A302 RMK A01 T00490018  RH  080%=      5-min Rain = 0
KRO1 150224Z 16006KT 05/02 A302 RMK A01 T00490018  RH  080%=      5-min Rain = 0
KRO1 150225Z 16006KT 05/02 A302 RMK A01 T00490018  RH  080%=      5-min Rain = 0
KRO1 150226Z 16006KT 05/02 A302 RMK A01 T00490018  RH  080%=      5-min Rain = 0
KRO1 150227Z 16006KT 05/02 A302 RMK A01 T00490018  RH  080%=      5-min Rain = 0
KRO1 150228Z 16007KT 05/02 A302 RMK A01 T00490018  RH  080%=      5-min Rain = 0
KRO1 150229Z 16007KT 05/02 A302 RMK A01 T00490018  RH  080%=      5-min Rain = 0
KRO1 150230Z 15007KT 05/02 A302 RMK A01 T00490018  RH  080%=      5-min Rain = 0
KRO1 150231Z 15007KT 05/02 A302 RMK A01 T00490018  RH  080%=      5-min Rain = 0
KRO1 150232Z 15007KT 05/02 A302 RMK A01 T00480018  RH  081%=      5-min Rain = 0
KRO1 150233Z 15007KT 05/02 A302 RMK A01 T00480017  RH  081%=      5-min Rain = 0
KRO1 150234Z 15006KT 05/02 A302 RMK A01 T00480017  RH  081%=      5-min Rain = 0
KRO1 150235Z 14006KT 05/02 A302 RMK A01 T00470017  RH  081%=      5-min Rain = 0
KRO1 150236Z 13005KT 05/02 A302 RMK A01 T00460017  RH  081%=      5-min Rain = 0
KRO1 150237Z 15006KT 05/02 A302 RMK A01 T00460017  RH  082%=      5-min Rain = 0
KRO1 150238Z 15006KT 05/02 A302 RMK A01 T00450017  RH  082%=      5-min Rain = 0
KRO1 150239Z 15006KT 04/02 A302 RMK A01 T00440017  RH  082%=      5-min Rain = 0
KRO1 150240Z 16006KT 04/02 A302 RMK A01 T00440017  RH  082%=      5-min Rain = 0
KRO1 150241Z 16005KT 04/02 A302 RMK A01 T00440017  RH  083%=      5-min Rain = 0
KRO1 150242Z 15005KT 04/02 A302 RMK A01 T00430016  RH  083%=      5-min Rain = 0
KRO1 150243Z 15005KT 04/02 A302 RMK A01 T00430017  RH  083%=      5-min Rain = 0
KRO1 150244Z 15005KT 04/02 A302 RMK A01 T00430017  RH  083%=      5-min Rain = 0
KRO1 150245Z 14005KT 04/02 A302 RMK A01 T00430016  RH  083%=      5-min Rain = 0
KRO1 150246Z 15005KT 04/02 A302 RMK A01 T00440016  RH  083%=      5-min Rain = 0
KRO1 150247Z 15006KT 04/02 A302 RMK A01 T00440016  RH  083%=      5-min Rain = 0
KRO1 150248Z 14005KT 04/02 A302 RMK A01 T00430016  RH  082%=      5-min Rain = 0
KRO1 150249Z 14005KT 04/02 A302 RMK A01 T00430015  RH  082%=      5-min Rain = 0
KRO1 150250Z 15004KT 04/02 A302 RMK A01 T00430016  RH  082%=      5-min Rain = 0
KRO1 150251Z 15005KT 04/02 A302 RMK A01 T00420016  RH  083%=      5-min Rain = 0
KRO1 150252Z 15006KT 04/02 A302 RMK A01 T00420017  RH  083%=      5-min Rain = 0
KRO1 150253Z 15006KT 04/02 A302 RMK A01 T00420016  RH  083%=      5-min Rain = 0
KRO1 150254Z 15006KT 04/02 A302 RMK A01 T00420016  RH  083%=      5-min Rain = 0
KRO1 150255Z 15006KT 04/02 A302 RMK A01 T00420016  RH  083%=      5-min Rain = 0
KRO1 150256Z 15006KT 04/02 A302 RMK A01 T00420016  RH  083%=      5-min Rain = 0
KRO1 150257Z 15006KT 04/02 A302 RMK A01 T00420015  RH  082%=      5-min Rain = 0
KRO1 150258Z 15006KT 04/02 A302 RMK A01 T00430015  RH  082%=      5-min Rain = 0
KRO1 150259Z 16006KT 04/02 A302 RMK A01 T00430015  RH  082%=      5-min Rain = 0
KRO1 150300Z 16006KT 04/02 A302 RMK A01 T00420015  RH  082%=      5-min Rain = 0
KRO1 150301Z 16006KT 04/02 A302 RMK A01 T00420015  RH  083%=      5-min Rain = 0
KRO1 150302Z 16006KT 04/02 A302 RMK A01 T00420015  RH  083%=      5-min Rain = 0
KRO1 150303Z 16006KT 04/02 A3019 RMK A01 T00420015  RH  083%=      5-min Rain = 0
KRO1 150304Z 16006KT 04/02 A3019 RMK A01 T00410015  RH  083%=      5-min Rain = 0
KRO1 150305Z 16006KT 04/01 A3019 RMK A01 T00410014  RH  083%=      5-min Rain = 0
KRO1 150306Z 16006KT 04/01 A3019 RMK A01 T00410014  RH  083%=      5-min Rain = 0
KRO1 150307Z 16006KT 04/01 A3019 RMK A01 T00400013  RH  083%=      5-min Rain = 0
KRO1 150308Z 16006KT 04/01 A3019 RMK A01 T00410014  RH  083%=      5-min Rain = 0
KRO1 150309Z 16006KT 04/01 A3019 RMK A01 T00410013  RH  082%=      5-min Rain = 0
KRO1 150310Z 16006KT 04/01 A3019 RMK A01 T00410013  RH  082%=      5-min Rain = 0
KRO1 150311Z 16007KT 04/01 A3019 RMK A01 T00410014  RH  083%=      5-min Rain = 0
KRO1 150312Z 16007KT 04/01 A3019 RMK A01 T00410014  RH  083%=      5-min Rain = 0
KRO1 150313Z 16007KT 04/01 A3019 RMK A01 T00410014  RH  083%=      5-min Rain = 0
KRO1 150314Z 16007KT 04/01 A3019 RMK A01 T00410014  RH  083%=      5-min Rain = 0
KRO1 150315Z 16007KT 04/01 A3019 RMK A01 T00400014  RH  083%=      5-min Rain = 0
KRO1 150316Z 16007KT 04/01 A3019 RMK A01 T00400014  RH  083%=      5-min Rain = 0
KRO1 150317Z 16007KT 04/01 A3019 RMK A01 T00390014  RH  083%=      5-min Rain = 0
KRO1 150318Z 16007KT 04/01 A3019 RMK A01 T00390014  RH  083%=      5-min Rain = 0
KRO1 150319Z 16007KT 04/01 A3019 RMK A01 T00390014  RH  083%=      5-min Rain = 0
KRO1 150320Z 16008KT 04/01 A3019 RMK A01 T00390013  RH  083%=      5-min Rain = 0
KRO1 150321Z 16008KT 04/01 A3019 RMK A01 T00400013  RH  083%=      5-min Rain = 0
KRO1 150322Z 16009KT 04/01 A3019 RMK A01 T00410013  RH  082%=      5-min Rain = 0
KRO1 150323Z 16009KT 04/01 A3019 RMK A01 T00420013  RH  082%=      5-min Rain = 0
KRO1 150324Z 15009KT 04/01 A3019 RMK A01 T00430013  RH  081%=      5-min Rain = 0
KRO1 150325Z 15009KT 04/01 A3019 RMK A01 T00440013  RH  080%=      5-min Rain = 0
KRO1 150326Z 16010KT 05/01 A3019 RMK A01 T00450013  RH  080%=      5-min Rain = 0
KRO1 150327Z 16010KT 05/01 A3019 RMK A01 T00460013  RH  079%=      5-min Rain = 0
KRO1 150328Z 15010KT 05/01 A3019 RMK A01 T00470013  RH  078%=      5-min Rain = 0
KRO1 150329Z 15010KT 05/01 A3019 RMK A01 T00480013  RH  078%=      5-min Rain = 0
KRO1 150330Z 15010KT 05/01 A3019 RMK A01 T00480013  RH  078%=      5-min Rain = 0
KRO1 150331Z 15010KT 05/01 A3019 RMK A01 T00480013  RH  078%=      5-min Rain = 0
KRO1 150332Z 15010KT 05/01 A3019 RMK A01 T00490013  RH  078%=      5-min Rain = 0
KRO1 150333Z 16009KT 05/01 A3019 RMK A01 T00490013  RH  078%=      5-min Rain = 0
KRO1 150334Z 15010KT 05/01 A3019 RMK A01 T00490013  RH  078%=      5-min Rain = 0
KRO1 150335Z 15010KT 05/01 A3019 RMK A01 T00480013  RH  078%=      5-min Rain = 0
KRO1 150336Z 15010KT 05/01 A3019 RMK A01 T00480013  RH  078%=      5-min Rain = 0
KRO1 150337Z 15010KT 05/01 A3019 RMK A01 T00480013  RH  078%=      5-min Rain = 0
KRO1 150338Z 16010KT 05/01 A3019 RMK A01 T00480013  RH  078%=      5-min Rain = 0
KRO1 150339Z 16010KT 05/01 A3019 RMK A01 T00470012  RH  078%=      5-min Rain = 0
KRO1 150340Z 16010KT 05/01 A3019 RMK A01 T00470013  RH  078%=      5-min Rain = 0
KRO1 150341Z 16009KT 05/01 A3019 RMK A01 T00470013  RH  078%=      5-min Rain = 0
KRO1 150342Z 16009KT 05/01 A3018 RMK A01 T00470012  RH  078%=      5-min Rain = 0
KRO1 150343Z 16008KT 05/01 A3018 RMK A01 T00460012  RH  079%=      5-min Rain = 0
KRO1 150344Z 16008KT 05/01 A3018 RMK A01 T00450012  RH  079%=      5-min Rain = 0
KRO1 150345Z 16008KT 05/01 A3018 RMK A01 T00450012  RH  079%=      5-min Rain = 0
KRO1 150346Z 16008KT 04/01 A3018 RMK A01 T00440012  RH  080%=      5-min Rain = 0
KRO1 150347Z 16009KT 04/01 A3018 RMK A01 T00440012  RH  080%=      5-min Rain = 0
KRO1 150348Z 16009KT 04/01 A3018 RMK A01 T00430012  RH  080%=      5-min Rain = 0
KRO1 150349Z 16010KT 04/01 A3018 RMK A01 T00420012  RH  081%=      5-min Rain = 0
KRO1 150350Z 16009KT 04/01 A3018 RMK A01 T00420012  RH  081%=      5-min Rain = 0
KRO1 150351Z 16009KT 04/01 A3018 RMK A01 T00420012  RH  081%=      5-min Rain = 0
KRO1 150352Z 16010KT 04/01 A3018 RMK A01 T00410012  RH  081%=      5-min Rain = 0
KRO1 150353Z 16009KT 04/01 A3018 RMK A01 T00410012  RH  081%=      5-min Rain = 0
KRO1 150354Z 16009KT 04/01 A3018 RMK A01 T00410012  RH  082%=      5-min Rain = 0
KRO1 150355Z 17009KT 04/01 A3018 RMK A01 T00400012  RH  082%=      5-min Rain = 0
KRO1 150356Z 17009KT 04/01 A3018 RMK A01 T00390012  RH  083%=      5-min Rain = 0
KRO1 150357Z 16010KT 04/01 A3018 RMK A01 T00380012  RH  083%=      5-min Rain = 0
KRO1 150358Z 16010KT 04/01 A3018 RMK A01 T00380012  RH  083%=      5-min Rain = 0
KRO1 150359Z 16010KT 04/01 A3018 RMK A01 T00380011  RH  083%=      5-min Rain = 0
KRO1 150400Z 16011KT 04/01 A3018 RMK A01 T00380011  RH  083%=      5-min Rain = 0
KRO1 150401Z 16010KT 04/01 A3018 RMK A01 T00380012  RH  083%=      5-min Rain = 0
KRO1 150402Z 16010KT 04/01 A3017 RMK A01 T00380011  RH  083%=      5-min Rain = 0
KRO1 150403Z 16010KT 04/01 A3017 RMK A01 T00390012  RH  082%=      5-min Rain = 0
KRO1 150404Z 16010KT 04/01 A3017 RMK A01 T00390011  RH  082%=      5-min Rain = 0
KRO1 150405Z 16011KT 04/01 A3017 RMK A01 T00400011  RH  082%=      5-min Rain = 0
KRO1 150406Z 16012KT 04/01 A3017 RMK A01 T00410012  RH  081%=      5-min Rain = 0
KRO1 150407Z 16011KT 04/01 A3017 RMK A01 T00410012  RH  081%=      5-min Rain = 0
KRO1 150408Z 16012KT 04/01 A3017 RMK A01 T00420012  RH  081%=      5-min Rain = 0
KRO1 150409Z 16012KT 04/01 A3017 RMK A01 T00430012  RH  080%=      5-min Rain = 0
KRO1 150410Z 16012KT 04/01 A3017 RMK A01 T00440012  RH  080%=      5-min Rain = 0
KRO1 150411Z 16012KT 05/01 A3017 RMK A01 T00450012  RH  079%=      5-min Rain = 0
KRO1 150412Z 16013KT 05/01 A3017 RMK A01 T00460011  RH  078%=      5-min Rain = 0
KRO1 150413Z 16013KT 05/01 A3018 RMK A01 T00470011  RH  077%=      5-min Rain = 0
KRO1 150414Z 16012KT 05/01 A3018 RMK A01 T00490012  RH  077%=      5-min Rain = 0
KRO1 150415Z 16013KT 05/01 A3018 RMK A01 T00490011  RH  076%=      5-min Rain = 0
KRO1 150416Z 16013KT 05/01 A3018 RMK A01 T00500011  RH  076%=      5-min Rain = 0
KRO1 150417Z 16012KT 05/01 A3018 RMK A01 T00500011  RH  076%=      5-min Rain = 0
KRO1 150418Z 16012KT 05/01 A3018 RMK A01 T00510011  RH  075%=      5-min Rain = 0
KRO1 150419Z 16013KT 05/01 A3018 RMK A01 T00520011  RH  075%=      5-min Rain = 0
KRO1 150420Z 16012KT 05/01 A3018 RMK A01 T00520011  RH  075%=      5-min Rain = 0
KRO1 150421Z 16012KT 05/01 A3018 RMK A01 T00520011  RH  075%=      5-min Rain = 0
KRO1 150422Z 16012KT 05/01 A3018 RMK A01 T00530011  RH  075%=      5-min Rain = 0
KRO1 150423Z 16012KT 05/01 A3018 RMK A01 T00530011  RH  075%=      5-min Rain = 0
KRO1 150424Z 16012KT 05/01 A3018 RMK A01 T00520011  RH  075%=      5-min Rain = 0
KRO1 150425Z 16012KT 05/01 A3018 RMK A01 T00520012  RH  075%=      5-min Rain = 0
KRO1 150426Z 16013KT 05/01 A3018 RMK A01 T00510012  RH  076%=      5-min Rain = 0
KRO1 150427Z 16013KT 05/01 A3018 RMK A01 T00510012  RH  076%=      5-min Rain = 0
KRO1 150428Z 16012KT 05/01 A3017 RMK A01 T00500012  RH  076%=      5-min Rain = 0
KRO1 150429Z 16012KT 05/01 A3017 RMK A01 T00500012  RH  077%=      5-min Rain = 0
KRO1 150430Z 16013KT 05/01 A3017 RMK A01 T00500012  RH  077%=      5-min Rain = 0
KRO1 150431Z 16012KT 05/01 A3017 RMK A01 T00500012  RH  076%=      5-min Rain = 0
KRO1 150432Z 16012KT 05/01 A3017 RMK A01 T00500012  RH  076%=      5-min Rain = 0
KRO1 150433Z 16012KT 05/01 A3017 RMK A01 T00500012  RH  076%=      5-min Rain = 0
KRO1 150434Z 16011KT 05/01 A3017 RMK A01 T00510012  RH  076%=      5-min Rain = 0
KRO1 150435Z 16011KT 05/01 A3017 RMK A01 T00500012  RH  076%=      5-min Rain = 0
KRO1 150436Z 16011KT 05/01 A3017 RMK A01 T00500012  RH  077%=      5-min Rain = 0
KRO1 150437Z 16011KT 05/01 A3017 RMK A01 T00490012  RH  077%=      5-min Rain = 0
KRO1 150438Z 16010KT 05/01 A3017 RMK A01 T00490012  RH  077%=      5-min Rain = 0
KRO1 150439Z 16010KT 05/01 A3018 RMK A01 T00500012  RH  077%=      5-min Rain = 0
KRO1 150440Z 16010KT 05/01 A3018 RMK A01 T00490012  RH  077%=      5-min Rain = 0
KRO1 150441Z 16010KT 05/01 A3018 RMK A01 T00480012  RH  077%=      5-min Rain = 0
KRO1 150442Z 17010KT 05/01 A3018 RMK A01 T00480012  RH  078%=      5-min Rain = 0
KRO1 150443Z 16010KT 05/01 A3018 RMK A01 T00470012  RH  078%=      5-min Rain = 0
KRO1 150444Z 16009KT 05/01 A3018 RMK A01 T00470012  RH  078%=      5-min Rain = 0
KRO1 150445Z 17009KT 05/01 A3018 RMK A01 T00460012  RH  079%=      5-min Rain = 0
KRO1 150446Z 17009KT 05/01 A3018 RMK A01 T00460012  RH  079%=      5-min Rain = 0
KRO1 150447Z 17009KT 05/01 A3018 RMK A01 T00450013  RH  079%=      5-min Rain = 0
KRO1 150448Z 17009KT 05/01 A3018 RMK A01 T00450012  RH  079%=      5-min Rain = 0
KRO1 150449Z 16009KT 05/01 A3018 RMK A01 T00450013  RH  079%=      5-min Rain = 0
KRO1 150450Z 16009KT 05/01 A3018 RMK A01 T00450013  RH  079%=      5-min Rain = 0
KRO1 150451Z 17008KT 05/01 A3018 RMK A01 T00450013  RH  080%=      5-min Rain = 0
KRO1 150452Z 17009KT 04/01 A3017 RMK A01 T00440013  RH  080%=      5-min Rain = 0
KRO1 150453Z 16008KT 04/01 A3017 RMK A01 T00440013  RH  080%=      5-min Rain = 0
KRO1 150454Z 17008KT 04/01 A3017 RMK A01 T00440013  RH  080%=      5-min Rain = 0
KRO1 150455Z 17008KT 04/01 A3017 RMK A01 T00440013  RH  080%=      5-min Rain = 0
KRO1 150456Z 17008KT 04/01 A3017 RMK A01 T00440013  RH  080%=      5-min Rain = 0
KRO1 150457Z 17008KT 04/01 A3017 RMK A01 T00440013  RH  080%=      5-min Rain = 0
KRO1 150458Z 16008KT 04/01 A3017 RMK A01 T00440013  RH  080%=      5-min Rain = 0
KRO1 150459Z 17007KT 05/01 A3017 RMK A01 T00450013  RH  080%=      5-min Rain = 0
KRO1 150500Z 17008KT 04/01 A3017 RMK A01 T00440013  RH  080%=      5-min Rain = 0
KRO1 150501Z 17008KT 04/01 A3017 RMK A01 T00440013  RH  080%=      5-min Rain = 0
KRO1 150502Z 17007KT 04/01 A3017 RMK A01 T00440013  RH  080%=      5-min Rain = 0
KRO1 150503Z 17007KT 04/01 A3017 RMK A01 T00440013  RH  080%=      5-min Rain = 0
KRO1 150504Z 17007KT 04/01 A3017 RMK A01 T00440013  RH  081%=      5-min Rain = 0
KRO1 150505Z 17007KT 04/01 A3017 RMK A01 T00430013  RH  081%=      5-min Rain = 0
KRO1 150506Z 17006KT 04/01 A3017 RMK A01 T00430013  RH  081%=      5-min Rain = 0
KRO1 150507Z 17006KT 04/01 A3017 RMK A01 T00430013  RH  081%=      5-min Rain = 0
KRO1 150508Z 17006KT 04/01 A3017 RMK A01 T00430013  RH  081%=      5-min Rain = 0
KRO1 150509Z 17006KT 04/01 A3017 RMK A01 T00430013  RH  081%=      5-min Rain = 0
KRO1 150510Z 17006KT 04/01 A3017 RMK A01 T00430013  RH  081%=      5-min Rain = 0
KRO1 150511Z 17007KT 04/01 A3017 RMK A01 T00440013  RH  080%=      5-min Rain = 0
KRO1 150512Z 17007KT 04/01 A3017 RMK A01 T00440013  RH  080%=      5-min Rain = 0
KRO1 150513Z 17007KT 04/01 A3017 RMK A01 T00440013  RH  080%=      5-min Rain = 0
KRO1 150514Z 18008KT 05/01 A3017 RMK A01 T00450013  RH  080%=      5-min Rain = 0
KRO1 150515Z 18008KT 05/01 A3017 RMK A01 T00460013  RH  079%=      5-min Rain = 0
KRO1 150516Z 18008KT 05/01 A3017 RMK A01 T00460013  RH  079%=      5-min Rain = 0
KRO1 150517Z 18008KT 05/01 A3017 RMK A01 T00460013  RH  079%=      5-min Rain = 0
KRO1 150518Z 18008KT 05/01 A3017 RMK A01 T00470014  RH  079%=      5-min Rain = 0
KRO1 150519Z 18009KT 05/01 A3017 RMK A01 T00470013  RH  079%=      5-min Rain = 0
KRO1 150520Z 18009KT 05/01 A3017 RMK A01 T00480014  RH  079%=      5-min Rain = 0
KRO1 150521Z 17009KT 05/01 A3017 RMK A01 T00480013  RH  078%=      5-min Rain = 0
KRO1 150522Z 17010KT 05/01 A3017 RMK A01 T00480014  RH  078%=      5-min Rain = 0
KRO1 150523Z 17010KT 05/01 A3017 RMK A01 T00490014  RH  078%=      5-min Rain = 0
KRO1 150524Z 17010KT 05/01 A3017 RMK A01 T00490014  RH  078%=      5-min Rain = 0
KRO1 150525Z 17010KT 05/01 A3017 RMK A01 T00490013  RH  078%=      5-min Rain = 0
KRO1 150526Z 17010KT 05/01 A3017 RMK A01 T00490014  RH  078%=      5-min Rain = 0
KRO1 150527Z 17009KT 05/01 A3017 RMK A01 T00490014  RH  078%=      5-min Rain = 0
KRO1 150528Z 17009KT 05/01 A3017 RMK A01 T00500014  RH  078%=      5-min Rain = 0
KRO1 150529Z 17010KT 05/01 A3017 RMK A01 T00490013  RH  078%=      5-min Rain = 0
KRO1 150530Z 17010KT 05/01 A3017 RMK A01 T00490014  RH  078%=      5-min Rain = 0
KRO1 150531Z 17010KT 05/01 A3017 RMK A01 T00500014  RH  078%=      5-min Rain = 0
KRO1 150532Z 17010KT 05/01 A3017 RMK A01 T00490014  RH  078%=      5-min Rain = 0
KRO1 150533Z 17010KT 05/01 A3017 RMK A01 T00490013  RH  077%=      5-min Rain = 0
KRO1 150534Z 17009KT 05/01 A3017 RMK A01 T00490013  RH  078%=      5-min Rain = 0
KRO1 150535Z 17009KT 05/01 A3016 RMK A01 T00490013  RH  078%=      5-min Rain = 0
KRO1 150536Z 17010KT 05/01 A3016 RMK A01 T00490013  RH  078%=      5-min Rain = 0
KRO1 150537Z 17010KT 05/01 A3017 RMK A01 T00490013  RH  078%=      5-min Rain = 0
KRO1 150538Z 17009KT 05/01 A3017 RMK A01 T00490013  RH  078%=      5-min Rain = 0
KRO1 150539Z 17009KT 05/01 A3017 RMK A01 T00480013  RH  078%=      5-min Rain = 0
KRO1 150540Z 17009KT 05/01 A3017 RMK A01 T00480013  RH  078%=      5-min Rain = 0
KRO1 150541Z 17009KT 05/01 A3017 RMK A01 T00470013  RH  078%=      5-min Rain = 0
KRO1 150542Z 17009KT 05/01 A3017 RMK A01 T00470013  RH  079%=      5-min Rain = 0
KRO1 150543Z 17010KT 05/01 A3017 RMK A01 T00460013  RH  079%=      5-min Rain = 0
KRO1 150544Z 17010KT 05/01 A3016 RMK A01 T00460013  RH  079%=      5-min Rain = 0
KRO1 150545Z 17009KT 05/01 A3016 RMK A01 T00460013  RH  079%=      5-min Rain = 0
KRO1 150546Z 17009KT 05/01 A3016 RMK A01 T00460013  RH  079%=      5-min Rain = 0
KRO1 150547Z 17010KT 05/01 A3016 RMK A01 T00460012  RH  079%=      5-min Rain = 0
KRO1 150548Z 17010KT 05/01 A3016 RMK A01 T00450012  RH  079%=      5-min Rain = 0
KRO1 150549Z 17010KT 05/01 A3016 RMK A01 T00460013  RH  079%=      5-min Rain = 0
KRO1 150550Z 17009KT 05/01 A3016 RMK A01 T00460013  RH  079%=      5-min Rain = 0
KRO1 150551Z 17010KT 05/01 A3016 RMK A01 T00460013  RH  079%=      5-min Rain = 0
KRO1 150552Z 17010KT 05/01 A3016 RMK A01 T00450013  RH  079%=      5-min Rain = 0
KRO1 150553Z 17009KT 05/01 A3016 RMK A01 T00450012  RH  079%=      5-min Rain = 0
KRO1 150554Z 17009KT 05/01 A3016 RMK A01 T00450012  RH  079%=      5-min Rain = 0
KRO1 150555Z 17009KT 05/01 A3016 RMK A01 T00450012  RH  079%=      5-min Rain = 0
KRO1 150556Z 17009KT 05/01 A3016 RMK A01 T00450012  RH  079%=      5-min Rain = 0
KRO1 150557Z 17009KT 05/01 A3016 RMK A01 T00450012  RH  079%=      5-min Rain = 0
KRO1 150558Z 17010KT 04/01 A3016 RMK A01 T00440012  RH  079%=      5-min Rain = 0
KRO1 150559Z 17010KT 04/01 A3016 RMK A01 T00440012  RH  080%=      5-min Rain = 0

Page generated in 0.1168 seconds.